GFSFLT2_sfc_temp_000.txt.gz
Temp
80 76 72 71 70 70 70 70 70 70 70 70 70 70 70 70 70 70 70 70 69 69 68 68 68 68 68 68 67 67 66 71
82 78 79 75 71 70 70 70 70 70 70 70 70 70 70 70 70 70 69 69 68 68 68 68 68 68 68 68 67 67 66 71
81 83 80 78 75 72 70 70 70 70 70 70 69 72 71 70 69 69 69 69 68 68 67 67 67 67 67 67 67 67 70 71
82 79 78 79 85 73 75 77 74 74 75 74 74 74 74 75 72 68 68 68 68 67 67 66 66 66 65 65 64 69 68 69
81 78 78 79 78 77 78 77 75 75 76 75 75 74 73 71 68 67 66 66 67 65 66 64 68 66 65 65 66 67 66 68
81 79 77 78 79 77 77 77 75 75 74 75 72 71 70 70 70 70 69 68 69 68 67 68 67 68 67 65 66 65 65 66
81 79 77 77 76 76 75 75 74 74 75 74 72 71 69 70 69 69 68 69 68 67 67 67 66 67 66 66 66 65 66 65
81 81 78 78 77 76 75 75 74 74 74 73 74 71 69 69 68 68 68 68 68 67 66 66 66 66 65 66 66 65 65 65
76 70 72 76 77 76 75 75 75 74 74 73 74 73 70 69 68 68 68 68 68 67 67 66 65 67 65 65 65 65 64 65
67 78 76 76 75 75 76 75 73 74 73 73 73 74 72 69 67 67 68 67 67 66 65 64 64 64 63 64 64 65 65 65
80 75 75 76 75 76 75 74 73 73 72 72 71 71 71 68 66 66 67 66 65 65 66 64 63 63 65 65 63 63 64 70
83 75 75 77 76 74 74 73 72 73 71 70 71 70 70 67 66 65 66 65 64 63 62 63 62 63 69 69 64 66 65 61
79 74 74 76 74 71 68 66 69 69 70 70 70 69 68 65 64 64 63 62 61 62 61 60 61 61 62 62 63 63 63 64
73 73 73 73 72 69 68 68 68 69 69 68 69 66 67 67 63 63 62 60 59 59 59 58 59 60 58 58 55 59 60 63
73 72 70 68 70 71 68 68 66 65 65 65 66 66 67 65 63 62 61 59 57 57 57 56 54 56 56 53 50 50 55 59
71 71 71 70 68 67 65 63 62 64 64 64 64 64 63 64 62 60 59 57 56 56 60 54 53 51 53 57 52 49 44 45
70 70 71 70 67 65 63 62 61 61 60 60 61 61 61 61 60 57 56 56 55 55 54 52 52 48 48 47 46 47 47 41
68 69 70 69 67 65 62 60 59 59 59 57 57 57 57 58 59 56 55 54 54 53 52 50 46 46 47 46 43 44 43 42
69 69 69 69 66 65 64 62 60 59 57 55 54 54 54 54 55 54 53 53 54 54 51 49 46 44 44 44 43 42 42 43
68 68 67 68 66 65 63 61 59 58 56 54 53 52 53 54 54 54 53 51 50 49 47 47 46 45 46 46 43 42 42 41

GFSFLT2_sfc_temp_003.txt.gz
Temp
68 70 70 69 69 69 69 70 70 70 70 70 70 70 70 70 70 70 70 69 69 69 69 68 68 68 68 67 66 67 63 64
69 68 68 66 67 68 69 69 69 69 70 69 69 69 70 70 69 70 70 69 69 69 68 68 68 67 67 67 66 66 63 63
71 70 69 67 66 69 69 70 69 69 69 69 67 66 67 68 67 69 69 69 68 68 68 67 67 67 66 66 66 62 63 64
73 72 70 69 77 67 66 69 68 67 68 67 66 65 65 69 68 68 68 68 68 67 67 67 66 61 61 65 60 62 63 63
72 72 72 71 70 66 67 66 65 67 68 68 68 68 66 66 63 64 62 65 63 65 63 62 61 60 62 61 61 62 60 62
72 71 72 70 69 68 67 68 67 66 68 69 66 64 64 64 63 63 62 62 61 61 60 62 61 63 63 62 62 61 60 60
73 71 69 70 70 67 68 67 68 67 67 68 67 65 64 64 63 63 63 63 62 62 62 63 63 63 63 62 62 62 62 61
73 69 70 72 69 69 68 67 67 67 66 67 68 66 63 63 63 63 63 63 63 63 63 62 62 62 63 63 62 62 63 62
68 68 68 68 70 70 69 68 69 66 66 67 68 67 65 64 62 62 63 63 63 62 62 61 60 62 61 62 62 62 62 63
68 70 68 66 68 69 68 67 67 66 65 64 66 66 64 62 62 62 61 62 62 61 60 60 59 58 60 61 60 61 62 62
66 64 65 65 68 68 67 68 67 65 63 63 65 65 65 62 61 60 60 60 59 59 60 58 57 58 61 62 60 59 59 66
67 64 63 67 68 68 63 63 63 62 62 63 65 63 63 61 61 61 60 59 57 57 56 57 56 58 64 64 59 60 58 56
65 63 63 65 60 60 59 60 60 61 62 63 63 64 65 62 59 58 57 57 55 56 55 55 56 55 53 58 56 57 58 58
63 62 61 62 60 59 60 60 61 61 61 62 63 61 61 62 58 57 56 55 54 54 54 52 52 53 50 51 47 53 54 57
63 63 62 61 61 62 61 59 58 58 59 59 60 59 59 58 57 55 54 53 52 52 52 51 49 50 51 47 42 41 45 50
62 63 64 64 61 58 56 54 54 55 55 55 56 57 57 58 56 54 52 51 51 50 55 49 48 45 47 51 46 44 39 38
60 62 63 63 61 59 56 54 54 54 54 52 52 53 54 55 54 52 51 50 49 48 47 46 45 44 44 43 42 42 46 43
61 62 62 61 60 60 57 55 54 51 50 49 50 50 51 53 54 51 51 49 48 47 46 45 43 46 47 46 44 42 38 37
60 61 62 61 58 57 56 54 52 49 49 48 49 49 49 50 49 48 47 47 47 45 44 43 42 40 40 40 40 40 40 39
60 62 62 63 58 55 53 52 50 50 53 52 51 48 48 49 47 47 47 47 45 43 42 42 43 40 40 41 40 42 39 38

GFSFLT2_sfc_temp_006.txt.gz
Temp
70 70 70 69 69 69 69 69 70 70 70 70 70 70 70 70 70 70 70 70 69 69 69 68 69 68 68 67 66 66 62 62
66 66 67 66 67 68 68 69 69 69 69 69 69 69 69 70 69 70 70 70 70 69 69 68 68 67 67 66 66 65 61 62
65 65 65 65 65 68 69 69 69 69 69 69 66 65 66 67 67 68 69 69 69 69 68 68 67 67 66 66 66 60 60 62
67 66 65 65 72 66 65 68 66 66 66 65 64 64 64 67 66 67 68 68 68 68 67 67 66 60 60 64 59 60 60 61
68 68 66 66 68 64 63 64 64 64 65 64 64 65 63 63 61 62 62 64 62 63 62 61 60 59 59 59 60 60 57 59
70 68 67 65 65 64 64 64 64 63 64 65 63 62 61 61 60 61 60 60 60 60 59 60 59 60 60 60 60 59 58 59
69 68 67 67 67 66 65 65 65 65 65 66 63 63 61 61 61 61 60 60 59 59 59 60 60 61 61 60 60 60 60 59
66 66 67 70 68 66 66 64 63 64 64 64 65 63 61 61 60 61 60 59 59 59 59 59 59 59 60 60 60 60 60 60
67 67 66 66 68 67 66 62 64 63 63 63 64 63 62 60 59 59 59 59 59 59 59 58 57 59 58 59 59 60 58 59
66 68 66 64 66 65 66 65 62 62 61 61 63 63 61 59 59 59 58 58 57 57 57 57 56 55 55 56 57 58 59 59
65 63 63 64 64 62 62 61 60 62 61 61 62 63 63 60 59 59 58 57 56 55 55 54 53 54 57 57 55 56 56 61
62 62 63 63 61 59 58 57 60 60 60 61 62 61 61 59 58 57 56 55 54 54 53 53 52 51 59 56 53 54 55 53
59 59 63 63 57 56 55 57 58 58 58 59 59 60 59 57 54 54 54 53 52 52 51 50 51 51 49 54 51 53 52 52
58 59 59 59 57 56 57 56 56 57 60 61 58 57 57 58 53 52 52 51 50 49 49 48 49 49 47 45 46 52 49 51
60 59 59 58 59 57 56 56 56 56 55 54 56 55 55 54 52 51 50 50 48 48 47 46 45 46 46 44 40 38 40 46
59 60 60 60 59 56 56 54 52 52 51 51 51 52 53 54 52 50 49 48 47 46 49 45 45 42 44 48 44 42 41 40
57 59 60 59 58 57 54 53 51 50 49 49 50 50 52 52 50 51 50 48 46 45 44 43 43 42 41 41 41 41 44 38
57 59 60 59 57 56 55 52 50 48 48 47 48 48 49 49 50 46 45 44 43 43 42 41 40 40 39 40 39 38 37 36
57 58 59 59 56 52 51 49 48 48 48 50 51 51 49 47 46 44 43 43 43 42 41 42 42 41 40 39 40 38 39 38
55 55 53 53 52 50 50 50 51 52 52 48 48 47 46 45 44 44 44 44 42 41 39 39 39 38 36 37 37 37 37 36

GFSFLT2_sfc_temp_009.txt.gz
Temp
72 72 70 69 69 69 69 69 70 70 70 70 70 69 70 70 70 70 70 70 70 70 69 69 69 68 68 67 66 66 60 60
68 66 66 66 66 68 68 69 69 69 69 69 68 69 69 70 69 69 70 70 70 70 69 69 68 68 67 66 66 64 59 59
64 64 64 64 64 67 68 69 69 68 68 68 66 64 64 65 67 68 69 69 69 69 68 68 67 66 66 66 65 58 58 59
63 63 63 63 70 65 64 66 65 65 65 65 64 63 63 65 65 66 67 67 68 68 67 67 66 59 59 63 58 59 58 58
65 64 63 63 66 63 62 63 63 63 64 63 63 64 62 62 60 60 60 63 60 62 61 60 60 58 58 58 59 59 57 58
67 65 64 63 63 62 63 63 63 63 63 64 61 60 59 59 59 59 58 58 58 58 57 58 58 59 58 58 58 57 57 58
67 65 64 64 63 63 63 63 64 65 63 64 62 60 59 59 59 58 58 58 58 58 58 58 58 58 58 58 58 58 58 58
66 66 65 65 63 63 63 63 63 63 63 62 63 60 59 59 58 58 58 57 57 57 57 56 56 56 58 58 58 57 57 58
65 64 63 63 64 63 62 61 62 61 61 63 63 61 59 59 58 58 57 57 57 56 56 55 55 56 55 56 57 57 57 57
63 66 62 63 63 62 60 59 59 59 60 59 61 61 60 58 57 56 56 55 55 54 54 54 53 52 52 53 54 55 56 56
62 63 62 61 61 59 57 58 57 58 58 58 59 59 59 56 55 54 54 54 52 52 52 52 50 51 54 53 51 51 52 56
60 60 60 58 59 58 56 56 56 56 56 57 58 57 57 55 54 52 52 52 51 50 50 50 50 49 55 54 50 51 50 48
57 59 60 58 56 55 54 53 54 54 56 56 56 57 57 52 51 51 51 50 48 49 48 48 48 48 46 50 48 49 50 47
58 57 57 56 55 54 54 53 54 57 58 57 56 54 53 53 50 49 49 48 47 46 46 45 45 45 43 42 41 46 45 49
57 57 58 57 57 55 54 54 54 53 51 50 51 52 52 51 50 48 47 46 45 44 44 43 42 43 44 42 38 36 38 43
57 58 58 58 57 56 55 53 52 49 48 48 49 50 50 50 49 47 46 45 43 44 44 41 41 39 41 45 41 39 35 36
55 57 58 57 56 55 52 50 48 47 47 47 48 48 48 49 47 48 47 45 42 41 41 40 40 38 38 38 39 39 38 36
53 55 55 55 54 52 50 48 46 46 46 46 46 46 47 47 49 46 44 43 41 40 40 39 38 38 38 37 37 38 38 37
54 52 50 50 49 48 48 47 47 48 50 50 50 48 46 45 44 43 42 42 41 41 39 38 37 35 35 35 36 35 36 39
50 51 50 51 50 50 49 50 49 51 52 50 47 44 44 43 42 43 44 43 41 39 38 37 36 34 34 34 34 34 35 35

GFSFLT2_sfc_temp_012.txt.gz
Temp
70 69 70 70 69 69 69 70 70 70 70 70 70 69 70 70 70 70 70 70 70 70 70 69 69 68 68 67 66 66 59 60
72 71 70 67 66 68 68 69 69 69 69 69 69 69 69 70 69 69 70 70 70 70 69 69 68 67 67 66 65 64 59 59
68 69 66 64 64 66 68 69 69 68 68 68 66 63 63 64 67 68 68 68 68 68 68 68 67 65 65 65 65 58 58 59
66 63 63 63 68 64 63 65 64 64 64 64 63 63 62 65 65 66 66 67 67 67 67 66 64 59 59 62 59 59 58 58
62 62 62 62 64 62 62 62 62 62 63 63 62 63 61 61 60 59 59 63 59 60 60 59 59 58 58 58 58 58 57 58
63 62 61 61 62 61 61 61 61 61 63 63 61 60 59 58 57 57 57 57 57 57 57 58 58 58 57 57 57 57 57 57
63 62 61 62 61 61 61 61 62 62 62 62 60 59 57 57 57 57 57 57 56 56 56 57 56 57 57 57 57 57 57 57
64 63 62 63 61 61 60 61 62 62 61 61 61 59 58 58 58 57 56 55 55 55 55 55 54 55 56 56 56 56 56 56
62 62 61 61 61 61 61 61 63 60 60 60 60 60 58 56 55 55 54 54 54 54 54 53 53 54 54 54 55 55 54 54
61 63 61 61 59 60 61 59 58 58 57 57 57 58 57 54 54 53 54 53 52 52 51 51 50 50 50 52 52 53 53 53
60 61 61 60 60 59 58 56 55 55 54 54 56 56 56 54 55 54 52 51 50 50 50 49 49 49 52 51 50 50 50 54
59 59 59 59 57 56 55 54 53 54 53 54 55 58 56 56 54 51 50 49 48 48 48 48 48 47 52 51 49 50 48 48
57 57 57 56 54 54 53 52 52 53 53 54 56 57 55 51 49 49 48 47 46 46 46 46 46 45 45 47 46 48 47 47
56 56 56 56 55 53 53 52 52 52 52 51 51 51 51 51 48 47 46 46 45 44 44 44 44 43 42 41 39 43 45 48
55 55 55 55 55 53 52 52 52 50 49 48 48 50 49 48 48 46 46 45 44 42 42 42 40 41 41 40 36 34 38 43
54 55 55 56 55 54 53 50 49 46 46 46 46 48 48 48 48 46 45 44 45 42 43 41 41 37 40 43 40 38 36 35
52 54 54 54 53 51 49 46 45 45 45 46 46 46 48 48 47 45 45 43 41 41 39 39 39 37 37 36 37 37 38 38
51 50 49 50 49 48 48 46 45 46 46 46 45 45 45 45 46 43 42 41 40 39 39 38 37 36 36 36 35 35 34 35
50 49 49 49 49 49 48 48 47 47 47 45 46 45 44 43 42 41 41 42 44 42 39 38 36 35 34 34 35 34 35 34
48 49 49 49 48 48 48 47 46 46 45 45 44 42 42 41 41 41 41 43 43 42 41 37 37 36 35 34 33 34 34 34

GFSFLT2_sfc_temp_015.txt.gz
Temp
75 76 74 70 69 69 69 70 70 70 70 70 70 70 70 70 71 71 71 71 71 70 70 69 69 69 68 66 66 66 76 76
74 75 76 75 75 68 68 69 69 69 69 69 69 69 70 70 69 70 70 70 70 70 69 69 68 67 66 66 65 66 76 77
73 72 72 73 74 73 70 69 69 69 70 69 69 74 75 74 69 68 69 69 68 68 68 68 67 67 66 65 65 77 76 77
71 70 70 72 74 73 73 74 75 74 74 73 75 72 74 73 70 66 66 66 67 66 66 66 69 76 76 71 76 74 75 75
70 69 70 71 73 73 74 74 73 73 72 72 73 73 72 74 74 75 73 68 74 73 73 75 72 72 73 72 73 73 74 74
70 70 69 69 73 72 72 73 73 73 73 71 72 73 72 72 74 72 71 71 71 71 72 70 70 70 70 70 70 71 73 73
71 69 69 69 69 71 71 71 71 71 72 71 73 73 71 72 70 71 71 71 71 70 71 70 70 69 70 69 69 69 70 73
70 69 69 70 70 69 67 67 67 66 65 66 67 71 69 70 69 69 69 70 69 70 69 69 68 68 68 67 67 68 68 69
68 66 67 68 67 65 63 63 64 63 64 63 64 66 66 67 68 68 67 67 67 68 67 68 68 68 66 67 67 67 67 66
68 67 66 65 62 60 60 60 61 63 62 63 65 65 66 66 66 65 65 66 64 66 66 66 65 64 64 66 66 67 65 65
66 66 65 63 59 59 59 59 59 64 64 65 64 65 64 65 65 63 62 64 63 64 63 62 62 62 64 65 64 66 64 66
66 64 63 61 60 61 61 61 62 65 65 66 65 66 64 63 63 61 63 62 61 62 61 62 61 59 61 62 62 64 64 64
65 63 63 64 65 63 63 63 64 64 65 63 63 63 62 62 62 62 61 61 60 60 61 58 60 58 58 59 60 60 60 62
65 64 66 68 67 66 67 65 64 63 62 61 61 61 61 61 60 61 61 61 59 58 57 57 57 55 53 54 52 56 59 59
65 66 66 66 65 65 64 64 63 62 62 61 60 60 61 61 60 61 60 59 58 55 54 53 53 54 52 51 47 47 49 56
64 64 64 64 63 64 62 64 62 59 60 61 63 60 61 62 60 58 56 56 54 54 54 52 52 49 52 53 51 49 44 42
62 61 62 61 62 61 61 59 59 60 60 59 58 59 58 58 57 56 55 55 52 52 52 51 52 50 49 48 48 48 48 42
59 60 60 61 61 61 60 59 58 60 59 58 59 58 59 57 55 54 53 53 52 52 50 50 50 50 50 48 46 43 43 42
59 60 58 59 58 58 58 57 57 56 57 57 56 57 57 57 53 52 52 51 51 50 50 48 49 49 48 48 48 46 46 44
59 59 58 58 57 57 58 57 58 58 57 56 55 55 55 54 53 52 51 51 51 50 50 49 49 48 47 46 46 47 46 44

GFSFLT2_sfc_temp_021.txt.gz
Temp
77 78 75 69 70 70 70 70 71 71 71 71 71 71 71 72 72 72 72 72 72 71 71 70 70 70 69 68 68 68 77 86
78 79 80 78 76 69 69 70 70 71 71 70 70 71 71 71 71 71 71 71 71 71 70 70 70 70 69 69 69 69 84 86
80 83 81 81 80 73 71 70 70 70 71 70 70 83 81 78 70 70 70 69 70 70 69 69 70 70 71 71 69 83 83 84
79 79 81 82 85 80 82 81 82 82 82 80 84 82 82 80 74 70 70 70 71 71 71 71 70 84 84 77 82 81 83 83
75 74 77 82 82 84 85 84 82 82 81 82 82 82 82 82 84 83 82 74 83 80 81 83 80 80 80 79 79 80 82 82
74 74 79 82 84 85 84 84 83 83 82 80 80 80 80 80 82 82 81 83 80 81 82 79 79 79 79 77 78 78 79 79
77 79 80 80 81 81 81 81 79 76 79 77 78 78 75 73 74 78 80 81 81 80 80 78 78 78 78 77 76 76 76 78
81 81 80 81 80 79 77 75 74 73 72 69 70 73 70 70 71 75 77 78 77 78 76 76 77 77 77 77 75 75 76 75
81 80 81 80 76 74 70 68 69 70 70 69 68 67 69 73 71 72 75 75 75 77 76 76 76 77 74 75 75 75 75 74
81 81 79 76 72 68 64 64 68 69 69 68 68 69 71 71 72 73 72 74 74 74 74 72 72 72 71 72 73 73 73 73
79 78 75 73 70 64 62 69 69 69 72 74 72 73 74 75 75 73 72 73 73 72 71 69 69 69 70 71 70 71 71 73
79 76 73 70 69 70 74 73 74 76 77 77 76 75 73 75 74 71 71 72 71 69 66 68 68 68 69 67 67 69 70 69
73 71 70 69 75 75 75 73 75 76 77 75 74 73 73 72 73 72 71 69 68 67 66 64 64 67 64 63 64 66 67 69
73 74 73 76 79 79 78 78 78 77 75 73 73 72 72 72 69 69 69 67 66 65 64 62 63 64 59 58 53 58 65 66
75 76 78 80 80 79 78 77 74 74 74 74 72 71 71 70 69 68 66 66 64 64 63 60 58 60 62 57 50 49 54 60
80 79 79 78 79 78 76 77 74 72 73 72 72 71 69 70 69 67 65 65 63 63 65 60 58 55 59 60 58 56 48 47
77 77 77 77 76 75 74 72 71 72 71 68 69 70 70 70 69 67 64 64 63 62 60 59 59 56 55 54 55 55 54 50
74 75 74 74 73 72 70 68 68 68 67 66 67 67 67 67 66 64 63 63 61 61 60 58 56 55 56 55 53 50 49 49
73 73 71 71 70 69 68 67 66 65 64 64 63 64 63 63 62 61 62 62 62 60 57 55 54 54 54 53 54 53 53 50
72 72 70 70 69 68 66 64 62 64 64 63 63 62 62 62 61 61 60 61 60 55 55 53 54 53 53 53 52 52 52 51

GFSFLT2_sfc_temp_024.txt.gz
Temp
68 70 73 69 69 69 70 70 70 71 71 71 71 71 71 71 71 71 71 71 71 71 71 70 71 71 70 70 69 69 68 73
69 72 72 70 71 69 69 69 69 70 70 70 70 70 71 71 71 71 71 71 71 71 70 70 71 71 70 69 69 70 71 71
71 72 73 72 71 71 70 70 70 70 70 70 69 72 71 71 69 70 70 70 70 71 71 71 70 69 72 70 69 71 71 70
71 72 72 72 77 71 71 72 71 72 72 70 71 73 72 75 72 70 71 71 71 71 71 70 69 71 70 71 69 70 69 68
72 71 74 76 74 74 74 73 73 73 74 75 73 74 72 72 70 70 68 69 72 69 72 73 72 69 69 67 68 68 66 67
72 73 74 74 76 74 74 74 73 73 73 74 71 69 69 69 69 70 70 71 71 70 69 71 68 70 69 68 69 66 65 66
72 74 74 74 73 73 73 71 69 69 70 71 70 69 67 67 67 67 69 69 67 67 67 67 67 68 69 69 68 67 66 65
74 75 73 75 73 71 68 69 68 68 68 67 66 66 64 66 66 65 67 67 67 66 66 65 65 66 66 66 66 65 66 65
75 73 74 73 70 69 67 67 67 67 67 68 66 65 66 65 65 65 65 65 65 65 64 64 63 65 64 64 64 64 64 64
76 77 74 71 68 66 63 62 65 65 65 65 66 67 67 65 65 64 63 63 63 62 62 60 60 60 59 60 61 62 62 64
75 74 71 68 67 65 63 66 66 66 66 66 67 68 69 66 63 62 62 63 62 62 59 58 57 58 61 59 57 57 59 65
74 72 68 69 65 64 68 68 68 68 69 68 69 67 67 65 63 62 62 61 60 59 57 58 56 55 62 60 55 55 57 58
72 67 65 68 65 65 68 66 68 68 69 68 68 67 67 64 62 62 61 59 58 58 56 54 53 54 52 52 53 54 53 55
69 68 67 69 69 70 71 69 69 68 66 66 66 66 65 65 62 60 59 57 56 55 54 51 52 52 47 48 44 47 51 53
71 70 70 71 72 74 71 69 66 65 65 63 64 65 65 64 62 59 57 56 54 53 53 52 48 49 50 46 41 39 45 49
72 72 73 74 73 71 67 66 64 64 63 63 64 65 64 64 62 59 58 56 54 53 56 50 49 45 48 53 47 45 39 39
73 74 73 72 71 69 67 64 63 63 62 61 62 61 61 61 59 56 54 54 54 53 52 50 49 46 45 44 44 44 44 39
70 70 71 70 68 66 63 60 60 59 58 56 58 58 57 57 58 54 54 53 52 52 51 51 49 46 46 45 44 41 40 38
68 69 68 67 64 63 61 60 58 56 55 56 56 55 54 54 54 53 52 52 53 52 49 48 46 44 45 44 45 44 44 42
69 68 67 66 64 62 60 59 57 56 58 57 55 54 53 54 53 53 52 53 52 51 48 47 46 45 45 44 44 44 45 43

GFSFLT2_sfc_temp_027.txt.gz
Temp
67 69 70 69 69 69 69 70 70 70 70 70 71 70 70 71 71 71 71 71 71 71 71 70 71 71 70 68 68 69 65 66
67 66 69 68 69 68 69 69 69 70 70 70 69 70 70 70 70 71 71 71 71 71 71 71 71 70 70 68 68 68 64 62
65 66 67 68 68 69 69 70 69 69 69 69 67 67 68 70 69 70 70 70 70 70 70 70 69 69 69 69 68 66 64 61
65 68 67 69 73 67 66 69 67 67 67 67 67 67 67 70 68 68 69 69 69 70 69 69 70 67 66 67 64 65 63 61
66 66 69 70 70 67 66 66 65 66 67 66 67 69 66 66 64 65 64 67 68 70 68 68 67 64 64 64 64 64 60 60
67 70 70 71 70 68 67 68 68 67 68 68 66 64 64 64 64 64 64 63 64 63 63 65 64 66 66 64 64 62 61 59
68 70 70 69 68 68 67 66 65 66 66 66 65 63 61 62 62 63 62 63 62 62 62 63 62 63 62 63 63 62 62 61
68 69 69 69 67 65 63 64 64 65 64 64 63 62 61 61 62 62 62 62 61 61 60 59 59 60 61 61 61 61 60 60
67 68 68 66 64 63 62 62 65 62 63 63 62 62 62 61 61 59 60 60 60 60 59 58 57 60 58 59 59 58 58 59
69 72 66 63 62 61 60 61 61 61 61 61 62 63 63 61 59 58 58 58 58 56 55 55 55 54 53 54 54 56 56 57
68 66 63 62 61 60 59 60 60 59 59 60 62 63 63 59 58 57 58 57 55 56 55 53 52 52 55 53 51 51 53 58
68 65 62 61 60 59 59 60 60 60 60 61 62 62 61 59 58 58 57 55 54 54 53 53 51 50 57 53 49 50 51 49
65 64 62 61 59 58 59 59 60 59 60 61 61 61 61 57 56 56 55 54 53 53 51 50 49 48 46 46 48 48 50 48
64 64 63 62 61 62 62 61 59 59 59 59 60 60 60 60 57 55 55 53 52 50 49 47 47 46 44 42 39 43 46 48
63 64 65 65 64 66 62 61 58 57 56 56 58 60 60 59 57 55 53 52 50 49 48 47 44 45 46 43 37 34 38 43
63 65 64 66 65 63 63 61 58 55 55 56 57 59 58 57 55 52 50 50 49 48 52 47 45 42 43 48 43 40 35 34
66 64 65 68 68 67 58 57 56 55 54 53 54 54 56 56 53 50 49 48 47 47 47 46 45 43 41 41 40 40 39 35
62 64 64 61 59 58 57 56 53 52 50 50 54 55 51 54 53 50 50 48 47 47 46 45 43 42 42 43 40 39 37 35
65 61 59 59 57 55 54 53 52 51 51 50 54 50 49 48 49 48 47 47 48 47 45 44 43 41 41 41 41 42 41 39
60 60 58 58 56 54 53 53 50 51 51 51 51 51 49 49 50 48 48 48 46 46 45 44 43 41 41 41 40 41 42 40

GFSFLT2_sfc_temp_030.txt.gz
Temp
68 70 70 69 69 69 69 70 70 70 71 71 71 70 70 71 71 71 71 71 71 71 71 71 71 71 70 68 67 67 62 63
65 67 67 67 68 68 69 69 69 70 70 70 69 69 70 70 70 71 71 71 71 71 71 71 70 70 69 68 67 65 61 60
64 65 65 67 67 69 69 70 69 69 69 69 67 66 67 68 68 70 70 70 70 71 70 69 69 69 69 68 66 61 60 59
64 65 65 66 71 66 65 68 66 65 65 66 66 65 65 68 68 68 68 69 70 70 69 69 67 63 63 65 61 61 60 59
64 64 67 67 67 64 63 63 63 64 65 65 65 66 65 64 63 64 63 67 65 66 65 64 63 61 61 61 61 60 58 58
65 66 67 66 66 64 64 64 63 63 65 66 64 62 61 61 61 62 62 61 61 61 60 61 61 62 61 61 60 59 58 58
66 66 68 67 64 64 64 64 65 64 63 64 64 61 60 61 60 60 60 60 60 60 60 59 59 60 60 60 59 58 57 56
67 67 66 67 65 63 63 65 64 63 63 62 62 60 60 60 60 59 59 59 59 58 57 56 55 57 57 57 57 56 56 56
65 65 67 65 63 63 61 62 62 61 61 61 61 61 61 59 58 58 58 58 57 56 55 55 54 56 55 55 55 55 55 55
67 69 65 63 60 60 60 60 60 60 60 60 61 61 60 58 57 57 56 55 54 54 53 53 52 52 51 51 51 52 52 53
63 64 62 60 60 58 59 60 59 59 58 59 60 61 60 58 56 55 54 54 53 54 52 51 50 49 52 50 48 49 49 54
64 63 60 60 59 58 58 58 58 58 58 59 60 59 58 56 54 53 54 53 51 51 51 50 49 47 54 51 47 47 47 46
63 61 60 60 58 57 57 57 57 57 58 59 59 58 57 55 53 53 53 52 51 51 49 48 47 45 45 44 45 45 45 45
62 62 61 62 60 58 59 58 57 56 56 56 57 57 56 56 53 53 53 52 50 49 47 45 45 44 42 40 38 41 43 46
62 61 62 62 62 60 58 57 55 54 53 54 55 57 57 56 54 52 50 50 49 48 47 46 43 43 43 42 36 34 36 40
62 63 63 62 61 60 59 59 58 53 53 53 54 56 54 54 52 49 49 47 46 45 49 44 42 41 41 46 41 40 34 32
61 62 62 62 61 59 58 56 54 53 52 52 52 51 52 52 51 48 47 46 45 45 44 43 42 40 40 40 39 38 37 34
61 60 60 61 61 59 58 54 52 51 49 49 49 49 50 50 50 47 47 46 45 45 43 43 42 41 41 44 43 41 36 34
61 61 57 56 56 54 54 52 53 52 49 49 49 50 50 49 48 49 46 46 45 45 43 42 41 40 40 40 40 40 39 38
59 59 54 54 55 53 53 53 52 50 50 52 51 50 49 49 49 47 46 46 44 43 42 42 41 39 40 39 39 40 40 40

GFSFLT2_sfc_temp_033.txt.gz
Temp
67 67 70 69 69 69 69 70 70 70 71 71 71 70 70 71 71 71 71 71 71 71 71 71 71 70 68 67 66 66 61 61
64 65 67 67 69 68 69 69 69 69 70 69 69 69 70 70 70 71 71 71 71 71 70 70 70 69 67 66 65 65 59 59
62 64 65 66 66 68 69 69 69 69 69 69 66 64 64 66 68 69 70 70 70 70 69 69 67 68 67 66 64 59 58 58
62 63 64 65 70 66 65 67 64 64 65 64 63 63 64 66 67 68 68 68 69 69 68 67 65 61 60 63 58 58 58 57
60 62 64 64 65 63 62 62 62 63 64 64 64 64 64 63 62 62 62 65 63 63 62 61 61 59 58 58 58 57 55 56
64 64 64 63 63 62 62 62 62 62 64 64 62 60 61 61 61 61 60 59 59 59 58 59 58 59 59 57 57 55 54 54
64 64 64 64 63 62 61 62 62 63 63 63 62 60 59 59 59 59 59 59 58 57 57 57 56 57 56 57 56 55 54 53
64 64 65 64 62 62 62 63 63 62 62 61 61 59 59 59 58 57 57 57 56 55 54 54 53 55 55 55 54 53 53 52
63 63 63 63 62 61 61 62 62 61 61 61 60 60 59 57 56 56 56 55 55 54 53 53 52 54 53 53 52 51 52 51
64 67 63 61 60 59 60 60 60 60 60 59 60 60 58 56 55 54 54 54 53 52 52 51 50 50 49 48 48 49 50 50
63 63 61 59 58 59 59 59 59 59 58 58 59 59 59 56 54 53 53 52 51 53 49 50 48 47 50 47 46 46 46 51
62 61 59 59 58 58 58 57 57 57 57 58 58 57 57 55 53 52 52 51 50 49 49 48 46 45 52 48 44 44 45 44
61 59 58 59 57 57 55 55 55 55 56 57 57 56 55 53 52 52 51 50 49 49 47 46 45 44 43 43 43 43 43 43
61 61 59 60 59 57 57 56 55 55 55 55 55 55 54 54 52 51 50 49 48 46 46 44 43 43 41 38 37 40 42 43
62 61 60 61 59 58 55 54 54 53 52 52 53 55 55 53 51 49 48 48 46 45 45 44 43 43 43 42 35 33 34 39
63 62 60 61 59 58 56 54 54 52 51 52 52 53 51 51 49 48 46 46 45 45 46 43 41 40 40 44 39 38 34 33
61 60 61 61 60 59 55 53 52 51 50 50 49 48 50 51 49 48 47 45 44 43 43 42 41 39 39 38 37 36 36 34
59 60 60 60 59 57 55 53 51 51 48 47 46 46 48 47 49 47 49 47 46 45 42 42 42 40 39 39 38 37 35 34
59 60 59 59 59 55 54 53 53 53 50 48 48 47 47 48 50 48 48 48 48 46 43 42 40 39 38 39 38 38 38 37
60 59 55 55 55 52 51 51 50 52 52 51 51 50 49 49 49 49 49 49 47 42 41 41 40 39 39 39 38 38 39 38

GFSFLT2_sfc_temp_036.txt.gz
Temp
66 66 69 69 69 69 69 70 70 71 71 71 70 70 70 71 71 71 71 71 71 71 71 70 70 69 68 67 66 66 61 62
64 63 65 66 67 68 68 69 69 70 70 69 69 69 70 70 70 71 71 71 71 71 70 70 69 68 67 66 65 64 59 60
62 63 64 65 66 68 68 69 69 68 68 68 65 64 64 65 68 69 70 70 70 70 68 67 67 67 66 65 63 58 58 59
62 63 64 65 69 65 64 67 64 64 64 63 62 62 62 65 66 68 68 68 68 67 66 66 63 59 59 61 57 57 57 58
61 62 64 64 64 63 61 61 61 61 62 62 62 62 62 62 62 62 62 64 61 62 61 60 58 57 56 55 55 55 54 55
61 62 63 63 63 62 61 62 61 61 62 63 62 61 61 60 60 60 59 58 57 57 56 56 56 57 56 55 54 53 53 54
61 62 63 63 62 61 61 61 61 61 62 63 62 60 59 59 58 58 57 57 56 55 55 55 55 55 55 54 53 53 52 52
64 63 63 63 61 60 60 61 61 62 62 61 60 58 57 57 56 56 55 55 54 54 53 53 52 53 53 52 52 51 51 51
61 62 63 61 60 59 59 60 61 60 60 59 59 59 58 56 55 54 54 54 54 53 52 52 52 53 51 51 50 50 50 50
62 65 61 60 59 59 59 59 59 59 59 59 59 59 58 55 54 53 53 53 53 52 51 50 49 49 48 46 47 49 49 49
61 61 60 59 58 58 59 59 59 59 58 59 59 59 58 55 53 52 53 52 51 52 48 49 47 47 49 46 45 46 47 50
61 60 59 58 57 57 57 57 57 57 57 57 58 57 56 54 53 52 51 50 49 48 48 46 46 46 51 48 44 44 44 44
60 58 57 58 56 56 55 55 55 55 55 56 56 55 55 53 51 50 50 49 48 48 46 46 44 43 43 43 42 43 44 43
59 59 57 59 59 56 56 55 54 54 54 54 54 54 53 53 50 49 48 47 46 46 45 43 43 42 41 39 37 41 42 43
61 59 58 59 58 56 53 53 52 52 51 51 52 53 53 51 49 48 46 46 44 44 44 44 42 41 41 41 37 35 36 40
61 59 58 59 58 58 55 55 52 51 50 50 50 51 50 49 48 46 45 44 44 44 45 43 43 40 42 43 40 39 36 34
60 60 59 61 60 59 56 54 53 51 50 48 47 47 48 48 47 45 44 44 45 47 47 45 41 40 39 39 38 37 37 35
59 59 60 60 59 57 56 53 50 50 47 46 45 45 45 46 46 45 45 45 47 46 42 42 41 40 40 39 40 38 37 34
58 59 60 59 58 56 55 53 53 54 50 47 46 45 44 46 48 46 47 48 47 46 43 44 41 39 39 39 39 39 38 37
59 59 60 59 58 57 55 56 54 53 50 47 47 47 47 50 48 48 46 48 47 46 43 41 40 39 38 38 38 38 38 37

GFSFLT2_sfc_temp_039.txt.gz
Temp
65 66 68 69 69 69 69 70 71 71 71 71 71 70 71 71 71 72 72 71 71 71 71 70 70 69 68 66 66 67 76 77
62 63 64 66 70 69 69 69 69 69 70 69 69 70 70 70 70 71 71 71 71 71 70 69 68 67 66 65 64 67 75 76
60 61 64 65 69 71 70 69 69 69 70 68 69 76 75 75 70 69 70 69 69 69 68 67 66 66 66 65 67 74 75 75
59 62 64 67 70 71 69 69 70 72 74 73 75 73 75 75 71 68 68 67 67 67 66 66 70 74 73 69 73 71 73 73
62 63 64 65 66 66 68 69 70 72 71 72 71 72 72 73 73 73 72 69 72 70 71 72 70 71 70 69 69 70 72 73
62 62 62 63 65 66 68 69 71 71 72 70 70 71 71 71 72 71 68 69 68 70 69 67 68 68 68 67 67 69 72 72
63 63 64 66 66 66 68 68 70 69 70 70 69 70 67 70 68 69 69 70 69 68 68 69 67 66 67 66 66 65 66 70
66 66 68 69 67 67 68 69 69 69 70 69 69 70 68 68 67 68 68 69 69 69 68 68 67 67 65 64 64 65 65 65
66 66 68 68 68 68 69 69 70 71 70 69 68 68 67 67 65 66 66 66 65 66 65 66 66 66 63 63 64 63 64 64
67 69 68 67 67 67 67 68 68 69 68 67 68 67 66 65 66 65 65 66 66 65 65 64 64 65 63 64 64 64 62 62
67 68 68 67 67 66 67 68 69 68 66 66 66 66 66 67 66 64 64 64 63 64 63 64 63 64 64 63 62 63 62 63
69 68 68 67 66 66 68 68 69 67 67 67 66 67 65 65 64 62 64 63 63 63 61 61 62 62 63 61 60 60 61 61
68 67 67 67 64 64 65 65 65 64 65 66 66 66 65 64 64 62 63 63 61 61 60 60 60 60 59 59 58 57 57 60
68 68 67 68 68 68 68 67 65 66 64 65 66 64 65 64 62 62 62 60 59 59 60 59 60 58 57 56 55 55 57 57
67 68 67 68 68 67 64 64 63 61 61 64 64 64 64 63 61 61 60 61 60 59 59 57 56 55 55 57 53 53 53 56
68 68 67 67 66 67 65 66 64 63 63 64 63 62 61 62 60 59 59 59 58 57 58 57 56 55 54 56 55 55 52 50
67 68 68 67 66 67 64 64 63 60 60 59 59 59 60 59 59 58 57 58 57 56 54 52 51 49 56 54 53 54 53 49
66 67 66 66 63 64 63 63 60 58 58 57 57 58 57 57 58 58 57 57 56 51 48 47 47 55 55 54 54 52 51 50
66 66 62 62 62 62 61 60 60 60 58 55 52 53 55 54 56 55 55 56 52 47 47 50 54 54 53 54 54 53 53 51
66 66 64 60 61 61 62 62 60 61 58 54 53 56 54 55 55 56 55 54 53 48 49 52 53 53 52 52 53 53 53 51

GFSFLT2_sfc_temp_042.txt.gz
Temp
69 71 71 69 69 70 70 71 71 71 72 72 71 71 71 72 72 72 72 72 72 71 70 70 70 69 68 66 67 70 83 82
65 65 64 66 71 68 69 69 70 70 70 70 69 70 70 71 71 71 71 72 71 70 69 69 68 67 66 66 67 70 82 83
62 62 64 67 71 73 70 69 69 69 70 69 70 81 81 80 71 70 70 70 69 68 68 67 66 66 66 67 69 82 82 83
61 61 63 66 70 71 75 75 79 75 74 76 83 80 82 81 73 68 67 67 67 67 67 68 72 81 78 72 81 79 81 81
58 58 59 64 64 69 72 74 73 76 76 79 79 80 79 81 78 79 77 73 79 77 77 81 78 80 78 78 78 79 80 81
57 58 62 64 64 68 72 74 76 78 79 78 78 79 79 79 81 80 79 80 77 77 77 75 75 75 75 74 74 77 78 80
62 63 63 63 64 66 71 73 74 77 77 79 80 80 77 79 79 80 78 78 77 77 75 75 74 74 74 73 73 73 73 77
61 63 67 66 71 72 70 72 75 76 79 78 77 79 77 79 77 77 77 78 77 77 76 76 76 75 72 72 71 73 72 72
68 69 72 73 75 74 76 77 78 78 77 77 77 78 76 76 76 75 76 76 75 74 74 75 75 76 72 72 74 72 73 71
72 73 73 72 73 75 77 78 78 79 79 77 75 76 76 74 75 74 75 74 75 75 75 74 74 75 73 75 74 73 71 71
72 72 72 72 75 76 75 76 78 80 78 77 74 73 73 75 75 74 73 74 73 73 73 74 72 74 74 74 73 72 70 72
74 74 73 72 74 75 77 77 79 78 77 77 75 75 73 75 75 72 74 73 71 72 70 71 73 73 73 70 69 69 69 68
75 73 74 75 72 73 75 74 77 75 75 75 73 76 74 74 74 72 72 72 71 69 69 67 69 70 68 67 66 65 64 67
75 75 75 75 77 77 77 77 77 77 76 74 74 74 74 73 72 71 71 70 68 67 67 67 70 69 64 64 62 63 63 64
76 77 77 77 77 78 78 78 76 74 71 70 72 72 73 73 71 71 70 70 68 67 67 66 65 65 63 61 59 59 63 65
77 78 78 78 78 77 74 74 73 74 72 72 73 71 72 72 71 70 68 70 67 67 67 66 61 57 54 60 61 62 59 58
77 77 77 77 76 76 74 73 77 77 73 71 70 69 69 70 69 68 67 68 66 65 63 61 56 53 59 61 61 61 60 56
76 76 76 76 74 72 72 72 73 68 69 68 68 67 67 65 66 66 67 67 64 64 63 57 53 57 62 63 61 59 59 57
76 76 75 71 68 65 66 68 70 66 67 67 65 64 61 61 63 63 65 63 63 62 55 56 54 59 60 61 61 60 60 58
75 73 71 71 68 62 66 67 64 64 68 67 65 60 60 59 60 62 62 62 59 55 52 51 58 57 59 59 61 60 60 58

GFSFLT2_sfc_temp_045.txt.gz
Temp
68 70 71 70 69 69 70 71 71 72 72 71 71 71 71 72 72 72 72 72 71 71 70 70 70 69 68 68 70 71 84 84
63 63 69 70 70 69 69 69 70 70 70 69 69 70 71 71 71 71 71 71 71 70 69 69 69 68 68 68 69 72 83 85
63 60 61 65 69 70 70 70 69 69 70 69 70 76 79 75 71 70 70 69 69 69 68 67 67 67 68 69 69 82 83 83
60 60 61 63 67 69 72 75 75 75 75 73 78 76 80 80 72 68 68 67 68 68 68 68 70 81 79 72 81 80 81 81
60 61 62 64 64 65 71 76 76 74 74 74 79 78 77 79 76 77 75 72 78 75 74 80 80 81 79 78 79 80 80 81
58 60 61 62 61 64 68 74 73 73 74 78 74 79 78 79 80 80 78 80 78 79 80 77 77 77 76 75 76 77 78 80
57 59 60 61 61 64 69 74 71 74 77 79 77 78 78 80 81 81 81 81 80 78 77 77 76 76 77 76 75 74 75 77
58 59 61 62 64 64 66 68 71 75 77 77 78 80 78 80 79 81 80 80 80 79 78 76 76 76 74 74 74 75 74 74
59 59 61 64 67 68 71 70 73 74 76 76 77 78 78 79 79 78 79 80 78 78 76 77 76 78 74 74 75 73 75 73
63 68 69 69 71 74 76 77 77 79 79 78 78 79 79 77 78 78 78 77 77 76 76 75 76 76 74 75 75 74 72 72
67 69 68 67 70 76 76 78 78 80 80 80 78 78 78 77 78 77 76 77 76 76 75 75 73 74 74 74 73 72 72 74
70 73 71 71 72 76 78 78 78 81 81 81 78 78 76 76 78 76 75 76 75 74 73 74 74 74 74 73 71 71 71 70
75 73 73 72 72 75 76 74 77 79 81 80 79 78 76 75 78 75 74 75 73 72 71 69 70 71 69 70 71 68 67 68
76 75 75 74 74 77 79 78 79 80 80 77 75 77 77 76 76 75 73 74 72 70 69 69 70 69 66 66 62 63 66 66
78 78 78 78 79 80 80 80 80 78 79 78 74 76 78 76 76 75 73 74 70 68 69 68 67 67 66 60 53 57 63 68
80 80 80 76 80 78 77 77 76 78 76 74 74 74 75 76 75 73 72 72 70 69 70 69 67 64 62 63 61 62 58 58
79 80 81 81 80 79 78 76 78 80 79 74 73 75 74 74 73 71 69 70 70 69 68 66 66 60 62 60 62 63 62 57
80 79 80 81 81 79 77 75 76 75 72 72 74 73 72 71 72 69 68 67 68 67 66 61 59 59 55 61 62 60 60 59
80 79 79 80 78 73 74 73 72 65 67 68 69 69 68 68 69 65 64 62 65 65 58 57 54 52 55 61 64 62 62 60
80 80 79 80 75 70 69 71 68 67 64 63 63 63 63 66 63 60 60 61 59 56 57 55 51 53 54 60 61 61 61 60

GFSFLT2_sfc_temp_048.txt.gz
Temp
70 69 69 68 69 70 70 71 71 71 71 71 71 71 71 71 72 72 72 71 71 70 70 69 69 69 70 69 68 70 70 73
65 66 67 68 68 69 69 69 69 70 70 70 70 70 70 70 70 71 71 71 70 70 69 69 68 69 69 69 69 68 72 72
63 63 65 65 67 69 70 70 69 69 70 69 69 71 71 72 69 70 70 69 69 69 68 68 68 68 69 69 69 70 71 69
63 63 63 64 66 67 68 70 70 70 70 70 71 69 71 71 68 68 68 68 68 68 68 68 68 67 66 68 68 70 69 67
59 61 62 63 64 64 66 65 68 69 68 71 70 70 69 68 67 67 65 68 68 67 66 68 70 68 67 66 67 68 66 65
59 61 62 62 62 63 63 66 68 68 68 70 69 68 69 69 69 68 67 67 66 67 66 68 68 69 68 67 67 65 64 62
59 59 60 60 60 61 63 66 68 68 68 71 71 69 68 69 69 71 70 71 68 68 67 68 67 68 67 67 67 65 65 63
58 58 59 59 58 59 60 65 67 68 68 70 71 69 68 70 71 71 71 70 69 68 67 66 66 66 65 66 65 65 65 64
58 58 59 59 60 60 61 65 69 68 69 70 70 71 70 70 69 70 69 70 69 68 68 67 66 68 65 65 64 65 64 64
59 60 58 58 59 60 65 68 68 69 68 68 70 71 70 69 69 68 69 68 67 66 65 65 64 64 61 62 63 63 63 63
58 59 59 59 63 68 67 67 68 70 69 70 70 71 72 69 68 68 68 67 66 66 65 64 62 62 63 61 61 61 61 67
62 63 62 63 65 67 70 70 71 70 72 73 72 71 71 68 67 67 65 66 65 65 63 63 62 61 69 64 60 60 60 59
65 64 64 64 64 65 66 67 69 70 71 72 72 72 71 68 67 67 65 65 65 64 62 61 59 60 57 57 58 58 58 57
66 67 66 66 66 68 70 70 70 72 72 73 72 70 71 69 67 67 65 65 64 62 61 58 58 58 54 54 51 53 54 57
68 69 69 70 69 71 72 72 70 69 70 69 70 70 70 70 68 66 65 65 62 61 60 59 56 56 57 52 48 47 50 54
72 72 72 72 72 70 70 70 69 69 68 70 70 69 68 70 70 67 65 63 62 60 62 59 57 53 53 57 56 54 46 45
73 74 74 74 74 72 70 69 69 70 70 68 68 67 68 68 68 66 63 63 62 61 60 59 56 54 55 53 54 54 51 47
74 74 75 75 73 72 68 67 69 67 66 65 65 66 66 65 67 64 63 62 61 61 60 58 53 54 53 53 52 52 52 50
74 74 74 75 72 72 70 68 68 67 66 63 61 60 60 62 64 62 60 61 59 59 56 54 52 50 50 52 54 54 54 53
74 74 73 75 73 70 70 70 67 66 66 62 61 61 61 61 60 60 57 58 56 54 52 51 49 48 49 52 52 49 52 53

GFSFLT2_sfc_temp_051.txt.gz
Temp
68 69 69 68 68 69 70 71 71 71 71 71 71 71 71 72 72 72 71 71 71 71 70 70 70 70 70 69 67 69 66 67
67 67 67 67 67 68 69 69 69 70 70 69 69 69 70 70 70 71 71 71 70 70 69 69 70 70 70 68 67 68 65 64
64 64 65 65 68 69 69 69 69 69 69 69 67 68 69 69 69 69 70 69 69 69 69 69 69 69 70 69 67 65 64 62
62 63 63 65 68 68 67 68 67 67 68 66 68 66 67 69 68 68 68 68 68 68 68 68 68 64 63 66 64 62 62 60
61 61 61 64 64 64 66 65 67 67 67 67 67 67 66 65 65 65 64 66 64 65 65 64 65 63 63 62 62 60 58 59
60 61 61 61 65 62 63 63 66 65 66 67 65 64 66 64 64 64 63 62 62 62 62 63 64 65 64 63 63 59 57 57
59 60 60 60 60 60 61 63 65 65 64 67 68 66 65 66 65 65 65 62 62 62 63 64 64 64 63 63 62 61 59 58
59 58 59 59 59 60 59 61 65 64 65 68 67 65 64 65 65 66 63 65 63 63 64 63 63 63 62 62 62 60 60 57
58 58 59 59 60 60 60 60 66 64 66 67 68 68 67 66 63 64 64 64 65 64 63 62 61 63 62 61 61 61 61 60
58 60 58 59 59 59 62 63 64 65 65 65 68 69 67 65 63 63 62 64 64 62 61 60 60 59 57 58 58 59 60 61
58 58 58 59 60 62 63 63 62 63 65 66 67 68 68 65 65 63 64 63 62 63 61 60 58 57 58 56 56 56 58 63
58 58 59 60 60 63 62 62 61 62 64 65 66 67 67 65 64 62 62 62 61 60 60 59 58 58 65 60 54 55 55 55
57 57 59 60 59 61 61 62 63 62 63 66 66 67 66 65 62 63 61 61 61 60 59 58 56 55 54 52 53 53 55 54
58 59 60 60 60 65 64 64 63 66 66 65 67 67 67 64 62 61 60 60 60 59 58 55 55 54 52 49 48 50 51 53
60 61 62 63 62 63 65 65 63 61 61 65 67 68 66 65 63 62 60 59 58 57 56 56 53 53 53 51 45 44 46 49
63 63 63 65 65 63 63 63 63 65 62 63 64 66 65 66 65 63 60 60 58 57 58 57 57 54 52 54 50 51 46 44
64 65 65 66 65 65 63 62 66 64 65 61 64 62 63 63 62 61 61 62 60 58 58 58 56 54 52 52 50 52 52 48
64 65 65 66 66 66 66 64 63 63 61 63 62 61 61 63 63 61 61 59 59 58 57 57 53 53 53 52 51 50 50 48
66 67 66 67 67 67 66 63 64 65 60 62 59 60 58 59 60 59 59 58 58 57 55 53 52 51 49 48 50 50 52 50
68 68 68 69 68 67 68 67 64 63 62 59 61 61 60 60 59 59 58 57 56 54 52 51 50 49 47 48 49 50 50 51

GFSFLT2_sfc_temp_054.txt.gz
Temp
66 68 69 68 67 67 67 70 71 72 72 72 72 71 71 72 71 71 71 71 71 71 70 70 70 70 68 68 67 67 61 63
67 67 67 66 66 67 68 69 69 69 70 70 69 70 70 70 70 70 70 70 70 70 70 70 70 69 68 67 66 66 60 61
66 65 64 64 65 65 69 69 69 69 69 69 68 68 69 69 69 69 70 69 69 69 69 68 67 68 68 67 65 61 60 60
63 64 63 63 64 66 67 68 68 67 66 67 66 66 67 68 68 68 68 68 68 68 68 68 65 61 62 65 60 60 59 58
62 62 63 63 62 65 67 66 67 65 66 66 67 66 65 65 66 65 65 66 65 65 64 63 64 61 61 60 60 58 57 58
61 62 62 62 66 67 66 66 67 66 66 64 64 64 64 64 64 63 63 62 62 61 60 62 62 63 62 60 59 56 54 56
60 60 60 61 61 62 63 64 67 65 64 64 66 63 62 64 63 61 62 61 59 60 61 61 61 62 61 61 59 57 56 56
59 59 59 60 59 60 62 63 65 65 65 66 63 63 62 63 61 62 61 61 60 61 61 61 61 61 60 60 58 57 57 56
58 58 60 60 59 59 60 62 65 66 65 65 64 65 64 61 60 60 60 61 62 61 61 61 60 61 60 59 59 58 57 56
58 60 59 59 59 60 63 62 62 65 63 64 65 66 65 63 62 61 61 61 61 61 60 59 58 58 56 56 57 57 57 56
56 58 59 59 60 62 62 62 62 64 64 65 65 66 65 64 62 61 61 60 60 62 59 59 56 55 56 54 54 54 56 60
59 58 60 59 60 62 62 61 62 62 64 63 64 65 65 63 62 61 61 59 59 59 59 57 57 56 62 58 52 53 53 53
58 58 58 59 59 60 60 59 60 60 61 63 63 63 65 63 62 60 60 59 59 59 58 57 55 54 53 51 51 51 51 51
58 58 59 60 60 61 61 61 58 60 61 62 62 63 63 63 61 60 60 59 59 57 57 54 54 52 53 51 52 50 50 51
56 57 58 59 59 60 58 58 58 58 59 60 62 62 63 63 62 60 59 58 58 56 55 55 55 54 54 54 47 46 45 48
58 58 59 59 59 60 60 61 61 63 60 62 62 62 63 64 63 60 59 59 58 57 56 54 56 54 52 55 53 52 48 48
58 59 60 61 61 61 60 58 61 62 60 58 61 60 63 64 63 60 59 59 60 58 56 55 55 53 53 50 51 51 51 48
58 58 60 61 61 61 60 58 59 60 58 57 58 61 60 62 63 61 59 59 59 59 57 56 54 53 53 51 50 49 48 46
60 60 59 61 61 61 62 60 60 60 60 59 58 60 58 60 62 60 60 59 59 58 56 55 53 51 51 50 50 49 50 49
60 61 61 62 62 62 62 63 63 63 63 60 59 61 61 59 59 58 58 58 56 55 53 52 51 50 50 49 49 49 49 49

GFSFLT2_sfc_temp_057.txt.gz
Temp
67 69 69 66 65 65 65 69 71 72 72 72 72 71 71 71 71 71 71 71 71 71 71 70 70 69 68 67 66 65 59 60
66 66 66 65 63 65 67 69 70 71 71 70 69 70 70 70 70 70 71 71 71 71 69 69 69 68 67 66 65 65 58 58
65 65 65 64 64 65 68 70 68 69 69 69 68 68 67 67 69 69 70 69 69 69 68 68 68 67 67 66 64 58 58 58
62 63 62 63 65 65 67 68 68 69 69 68 67 65 66 67 67 68 68 68 68 68 67 67 65 60 63 63 58 58 58 58
62 62 63 62 61 60 67 66 65 62 62 65 65 65 66 65 65 64 65 65 64 64 61 62 62 60 59 57 58 58 57 58
62 61 60 61 63 62 65 65 65 63 63 65 64 63 65 64 62 61 62 62 61 61 60 61 60 60 58 57 57 56 54 55
60 62 61 60 60 62 63 64 64 63 63 64 65 65 63 61 61 60 61 60 60 59 60 60 59 59 58 57 56 55 55 55
59 60 61 61 62 62 61 60 62 63 64 65 64 63 62 62 61 61 59 60 60 59 60 59 59 58 57 57 56 55 55 55
59 59 60 60 60 60 61 62 65 64 65 63 63 63 63 61 59 59 57 59 59 59 59 58 57 59 58 57 55 55 55 55
59 60 60 60 60 60 63 62 64 65 65 64 62 63 63 61 60 59 59 58 58 58 58 57 56 57 55 54 54 54 55 55
57 58 59 60 60 61 61 62 62 62 63 63 63 65 64 63 62 60 60 59 58 58 57 57 55 55 55 53 53 53 54 57
57 57 57 59 58 58 59 60 61 62 62 63 63 63 63 62 61 60 61 59 58 57 57 56 56 55 60 56 51 51 52 51
58 56 57 57 61 57 58 58 60 61 62 64 63 63 62 61 60 59 59 58 58 58 56 55 54 53 52 51 50 51 50 50
58 58 58 58 60 63 62 60 60 61 62 62 63 62 62 61 60 59 59 58 57 56 55 53 54 52 52 52 47 50 49 49
57 58 59 60 61 60 59 60 60 59 60 60 61 62 62 61 60 59 58 57 58 56 55 54 53 51 53 54 48 47 49 50
57 56 57 58 60 59 59 60 60 57 58 59 60 60 60 61 60 59 58 58 57 57 57 54 53 52 52 54 53 52 49 48
55 56 57 58 57 58 56 54 56 57 58 57 57 58 59 60 60 59 58 58 58 57 55 53 53 53 52 51 51 51 49 47
53 55 56 58 57 56 56 55 54 55 55 55 56 56 58 59 60 60 59 58 57 57 56 55 54 54 52 51 51 49 47 46
54 55 55 57 57 58 58 57 56 56 57 56 55 54 55 58 59 58 60 60 59 59 57 57 54 53 52 52 52 51 51 49
55 56 56 58 57 58 58 59 59 58 58 58 56 57 58 58 58 59 60 57 56 56 56 55 53 52 51 51 50 50 50 49

GFSFLT2_sfc_temp_060.txt.gz
Temp
67 68 70 69 70 69 69 69 72 72 72 72 72 71 71 72 71 71 71 71 71 70 70 69 69 68 67 66 65 65 59 61
65 66 65 64 64 66 66 67 70 71 71 70 69 70 70 70 70 71 71 71 70 70 69 69 68 68 67 66 65 64 59 60
65 64 63 63 63 65 65 67 71 69 70 69 67 67 66 65 69 70 70 69 69 69 69 68 67 67 66 65 63 59 59 60
64 63 62 62 62 62 63 66 67 69 69 67 66 63 63 66 68 68 68 68 68 67 68 67 64 60 62 63 58 58 58 59
62 62 62 61 61 62 66 68 65 68 68 66 64 64 64 63 64 64 65 66 65 65 64 62 59 58 58 58 58 57 57 59
61 62 61 61 64 64 67 69 67 63 64 65 64 64 61 60 61 59 59 59 59 61 60 59 58 59 58 57 57 56 56 57
60 60 59 61 62 64 64 65 64 63 64 65 66 63 61 60 61 61 59 59 58 59 59 59 58 57 58 57 56 55 55 56
60 60 60 60 60 61 61 62 61 62 63 63 64 63 61 63 61 59 58 58 59 60 59 58 58 58 56 56 55 55 55 55
59 60 60 61 61 61 61 62 62 61 61 61 61 61 61 60 59 58 57 58 58 59 58 58 56 58 57 56 55 55 55 55
59 60 60 60 61 60 61 62 62 62 60 61 61 62 61 59 58 59 57 57 58 57 57 56 57 56 55 55 55 55 55 55
58 58 59 59 60 60 60 61 62 61 62 62 61 63 61 61 59 59 58 57 57 58 56 57 56 56 56 55 54 54 54 57
57 57 57 58 59 58 58 60 60 62 62 62 62 63 62 61 59 59 59 58 57 57 56 56 56 56 59 57 53 52 52 52
57 56 56 57 59 58 57 57 59 60 61 62 63 62 62 61 60 60 59 58 58 58 56 55 54 54 53 52 52 51 51 51
57 58 57 57 59 63 59 57 59 61 61 62 63 62 61 60 60 59 59 58 57 56 56 53 54 52 52 50 49 51 50 51
57 58 58 58 58 58 59 59 57 59 59 60 61 62 61 61 60 59 58 58 57 55 55 55 53 50 52 53 48 47 48 49
58 59 59 60 59 58 59 61 57 59 59 61 61 61 59 61 59 58 58 57 56 56 56 55 53 51 50 52 52 52 49 48
57 56 59 60 58 59 56 53 57 57 59 59 59 58 58 58 59 58 57 57 57 56 55 53 53 51 50 49 50 50 50 49
56 53 55 57 57 57 56 55 54 54 54 54 55 55 56 57 58 57 57 57 57 57 55 55 55 55 53 52 51 49 48 48
52 54 53 55 55 56 56 55 54 54 53 53 53 53 53 55 56 56 56 57 58 58 57 57 56 55 55 54 53 54 52 51
52 52 53 55 54 54 55 56 56 56 54 52 52 53 54 55 56 57 57 57 58 58 58 57 56 55 54 53 53 52 51 50

GFSFLT2_sfc_temp_063.txt.gz
Temp
70 71 71 70 70 72 71 71 72 72 72 72 72 72 72 72 72 72 72 71 71 70 70 69 69 68 67 66 65 68 75 75
71 69 70 70 71 67 70 71 70 71 71 71 70 71 71 71 70 71 71 71 70 70 69 69 68 67 66 66 65 67 75 75
68 66 67 69 69 68 69 69 70 70 70 69 69 75 73 73 71 69 70 70 70 69 69 68 67 67 66 65 67 74 74 75
64 64 64 65 65 65 66 67 67 69 70 71 71 70 71 75 71 68 68 69 69 68 68 67 70 73 71 67 73 72 73 74
64 61 61 61 60 60 62 64 65 67 68 69 70 70 70 73 72 73 71 70 74 72 71 73 71 72 72 71 71 71 73 74
61 61 61 60 60 60 62 66 64 64 66 70 70 68 70 69 72 71 71 72 71 72 71 70 70 71 70 69 70 72 72 74
61 62 62 61 61 61 61 65 65 64 66 70 69 68 67 70 69 72 71 71 71 69 70 70 69 70 70 70 69 69 70 73
60 61 61 62 61 63 64 65 64 63 66 69 70 68 67 68 69 70 70 72 72 72 71 70 71 70 68 69 68 69 70 70
59 59 61 61 64 62 62 63 65 63 67 69 69 67 68 70 70 69 67 68 69 69 68 69 68 69 68 67 67 67 68 68
60 61 60 61 62 60 63 63 65 64 63 67 68 69 69 67 67 67 67 67 70 69 68 68 67 67 67 67 67 68 67 67
59 60 60 61 61 60 61 62 64 63 64 64 67 68 68 68 68 66 66 66 67 68 67 67 66 66 67 67 67 67 66 67
59 60 60 61 59 61 60 60 64 63 64 65 68 67 66 67 67 66 66 65 65 67 65 66 66 66 67 66 65 65 65 64
58 57 58 60 58 58 58 58 64 65 64 64 67 67 67 67 66 66 66 66 65 64 64 64 63 64 63 64 64 62 62 65
58 58 58 59 60 62 62 62 64 64 65 65 67 65 67 68 67 66 66 65 64 64 64 63 66 64 64 64 61 62 62 64
59 59 58 58 60 59 58 59 59 62 63 66 66 66 67 67 67 64 64 65 63 64 64 63 63 62 64 66 59 59 63 63
61 60 59 58 60 59 60 62 59 63 63 67 64 65 66 66 64 63 64 64 63 63 63 64 64 63 60 64 63 64 61 60
61 60 62 60 60 61 60 60 63 60 60 63 64 64 65 65 63 65 64 66 65 65 64 63 64 64 63 60 60 62 61 56
61 60 62 61 60 61 60 60 59 59 58 59 60 63 62 64 65 64 65 65 65 65 65 64 63 63 62 60 61 54 58 53
60 61 61 62 60 61 61 63 61 62 60 61 62 63 63 63 65 64 65 66 66 67 65 64 63 61 58 56 55 57 62 56
60 59 60 61 61 62 63 64 64 64 63 64 64 65 67 66 66 66 67 67 66 66 65 65 63 57 56 57 58 59 60 59

GFSFLT2_sfc_temp_066.txt.gz
Temp
76 78 75 70 73 70 70 71 72 72 73 73 73 72 72 72 72 72 72 71 71 70 69 69 69 68 68 67 67 70 83 82
74 75 74 78 78 68 70 71 70 71 72 71 70 71 71 71 71 71 71 71 70 69 69 69 68 67 67 66 67 70 83 83
74 74 74 73 81 75 71 72 71 70 71 69 69 76 76 75 73 70 70 69 69 69 68 68 67 67 66 67 67 82 82 82
71 70 72 71 70 74 74 70 69 69 70 71 74 73 76 78 73 69 68 68 68 68 67 67 70 77 75 69 82 80 81 81
69 68 66 66 69 64 66 65 66 67 69 70 72 72 78 77 76 75 76 71 77 74 73 80 79 79 78 80 78 79 81 80
64 65 62 62 62 63 63 62 63 64 67 69 70 72 74 74 78 79 78 79 77 77 79 79 78 78 78 77 78 80 81 80
65 61 61 61 61 62 62 63 63 64 65 68 74 73 72 73 77 80 80 81 79 78 79 78 77 77 78 77 77 78 78 80
62 62 61 61 60 62 62 62 63 63 64 68 71 73 71 74 75 77 78 80 80 80 78 78 78 78 76 77 76 77 77 78
62 61 61 60 60 61 61 62 64 63 64 70 74 74 73 74 75 75 78 80 79 79 78 79 78 78 76 76 76 75 76 76
61 62 62 61 61 61 64 63 63 64 64 70 73 73 73 72 73 77 78 77 77 77 77 77 77 77 75 75 76 76 75 74
60 61 59 61 61 64 64 64 64 64 64 73 73 72 72 71 72 74 74 76 76 76 76 75 74 75 75 75 75 75 74 76
62 62 59 63 64 62 62 63 63 64 63 72 75 76 74 75 75 72 73 74 75 75 73 74 74 74 76 73 72 73 75 73
61 59 60 64 63 60 60 60 63 63 64 66 71 72 71 73 73 71 72 73 74 73 72 70 70 72 71 71 70 70 71 74
59 61 64 64 64 64 69 65 66 65 66 65 68 71 68 68 71 71 73 73 71 71 71 69 71 70 70 71 66 68 70 71
61 60 62 66 65 64 64 63 63 64 64 65 67 68 66 67 69 72 72 73 71 70 70 71 68 69 70 69 66 65 72 73
64 62 60 62 63 61 64 61 60 70 69 66 66 68 66 68 70 72 69 68 68 69 71 70 67 68 70 72 73 73 68 67
66 65 62 61 61 61 60 61 64 66 66 68 64 65 67 68 68 69 67 68 69 68 67 69 71 69 71 71 69 70 69 66
67 67 65 61 60 61 61 64 65 66 62 63 63 62 65 64 65 66 67 67 69 68 71 69 71 70 71 71 69 67 65 65
65 67 66 64 60 62 63 63 62 61 62 62 62 62 62 63 68 69 68 69 69 67 69 72 71 70 69 69 69 67 62 58
67 68 69 67 65 65 68 66 65 67 64 64 62 64 67 65 66 68 68 71 73 73 72 73 72 71 70 70 68 64 57 62

GFSFLT2_sfc_temp_069.txt.gz
Temp
78 79 76 69 67 65 64 66 72 72 72 73 73 72 72 73 73 72 72 71 70 70 70 69 69 69 69 68 69 71 84 81
78 79 78 76 73 66 67 68 70 71 72 71 71 71 72 71 71 71 71 70 70 70 69 69 68 68 68 68 69 71 83 82
75 77 76 78 80 77 70 68 71 71 71 69 69 76 76 76 72 70 70 69 69 69 68 68 67 67 68 68 68 84 83 81
73 73 75 77 75 77 75 70 70 71 73 71 73 73 76 76 71 68 68 68 68 68 67 66 70 76 75 69 80 83 82 79
71 72 74 73 74 73 70 70 68 68 68 71 70 70 71 74 72 73 72 71 74 72 71 76 78 78 78 80 80 82 82 79
73 72 70 67 70 68 67 69 66 65 65 66 65 65 68 73 73 75 74 77 74 75 76 80 79 79 80 78 80 82 81 77
68 64 67 66 64 65 67 64 65 64 64 64 64 64 70 74 73 75 77 79 77 77 80 79 79 79 79 78 80 80 79 78
66 63 62 63 66 62 63 63 63 63 64 64 65 65 70 74 73 78 79 81 80 80 80 79 79 79 77 78 79 79 80 78
65 61 62 61 61 62 61 62 62 61 62 64 66 69 72 74 76 76 80 78 80 80 79 80 79 80 77 78 78 78 79 78
65 63 62 61 61 61 61 62 62 62 62 64 66 71 75 75 76 77 75 79 80 79 78 78 78 78 77 77 78 77 76 76
63 63 62 61 61 62 62 62 62 62 62 66 68 73 75 76 75 76 77 79 79 78 77 78 76 77 77 77 76 76 75 77
62 62 61 61 62 62 61 61 61 62 62 66 71 73 72 73 74 73 75 74 75 76 75 77 77 76 77 75 75 76 75 75
61 59 59 61 61 61 59 59 60 60 62 66 71 75 74 73 73 71 70 71 71 73 74 72 73 75 73 72 72 72 73 74
62 62 62 61 66 66 65 62 63 64 64 64 74 76 76 75 73 72 72 72 72 72 71 69 71 72 69 68 63 67 70 72
62 63 64 64 66 67 65 64 63 62 63 62 67 72 73 73 74 71 70 74 72 71 71 71 65 70 70 67 62 62 66 71
65 64 65 66 67 68 65 66 62 63 64 65 66 68 70 72 72 69 69 74 73 72 73 72 66 62 69 69 71 71 64 59
64 63 64 66 67 68 64 62 70 65 65 64 64 66 68 70 66 65 65 70 70 70 69 68 66 64 64 68 70 71 71 66
65 62 62 64 66 65 64 64 67 63 63 66 63 64 69 69 65 64 66 66 68 67 65 66 66 68 69 70 70 68 67 66
68 66 62 62 62 64 68 66 63 64 65 66 64 62 64 69 65 64 65 67 68 68 63 67 68 68 69 68 70 69 70 68
72 70 66 64 61 62 67 68 68 68 70 70 66 65 63 67 67 66 70 69 70 70 70 68 70 65 67 68 70 71 71 70

GFSFLT2_sfc_temp_072.txt.gz
Temp
76 74 70 70 68 67 67 65 65 69 72 73 72 72 72 72 72 72 71 71 70 70 69 70 70 69 69 69 69 72 74 72
74 75 72 68 66 66 65 65 67 69 71 71 70 71 71 71 71 71 70 70 70 69 69 69 68 68 68 69 68 73 74 72
73 72 73 72 66 66 67 66 66 65 71 70 69 72 71 70 70 69 69 69 68 68 68 67 67 68 68 68 68 75 73 70
71 70 71 71 70 66 65 66 64 66 70 70 72 71 70 71 69 68 68 67 67 67 67 67 69 66 66 67 67 75 72 69
69 70 69 69 68 67 67 65 63 64 69 70 71 70 68 67 67 67 66 66 66 66 66 68 67 67 67 67 69 74 71 69
70 69 69 69 68 67 67 66 66 66 67 68 67 65 66 65 68 66 66 67 66 66 66 67 67 69 69 70 71 73 69 67
68 68 67 65 66 66 67 66 65 64 64 64 65 65 64 66 68 68 68 68 68 66 67 70 68 69 69 70 73 72 69 67
67 65 65 65 63 64 65 65 63 63 63 63 64 64 64 64 68 68 69 69 70 69 70 69 68 68 68 70 71 72 70 67
63 63 63 62 63 63 64 63 63 62 62 63 63 64 63 64 66 68 69 71 70 69 70 68 67 70 68 68 69 69 71 68
63 63 61 61 61 62 62 62 62 62 62 62 63 64 64 64 67 70 71 71 71 70 68 67 66 66 65 65 66 67 68 68
63 62 62 61 61 61 61 62 61 61 62 63 63 64 66 67 65 67 69 71 68 70 66 66 65 65 66 64 64 64 65 70
63 63 63 61 61 61 61 60 60 60 61 62 63 64 67 68 66 67 67 67 67 67 66 67 67 65 73 67 64 63 63 63
62 61 60 61 60 59 59 58 59 59 60 63 63 65 69 68 66 66 67 66 66 67 66 66 65 65 63 61 62 64 63 63
61 61 60 61 62 61 61 61 61 61 61 63 65 66 68 67 66 66 66 66 65 65 65 62 63 64 61 59 56 58 60 62
60 61 62 63 64 63 62 62 59 59 61 61 63 68 68 68 66 66 65 65 65 65 64 63 59 62 63 59 54 53 56 60
63 62 62 63 65 63 61 59 57 60 62 63 62 65 68 69 68 67 66 66 65 63 65 64 62 59 60 63 61 60 56 53
64 64 63 64 64 64 62 61 62 63 63 63 61 62 65 67 66 65 65 65 64 63 63 63 63 59 60 58 59 60 59 56
64 64 63 64 64 64 64 63 62 61 61 61 61 62 63 64 65 65 63 64 64 63 63 63 60 60 61 60 59 59 58 55
63 62 62 63 63 63 64 64 63 62 61 62 61 61 62 63 64 63 64 64 63 63 61 61 61 59 59 59 62 59 61 59
64 63 62 63 63 63 64 65 64 65 63 64 64 63 63 64 64 64 64 64 63 62 61 61 60 60 59 61 63 61 60 61

GFSFLT2_sfc_temp_075.txt.gz
Temp
69 69 71 69 68 68 66 67 66 65 66 71 72 72 72 73 73 72 71 71 71 70 70 70 70 69 69 68 69 69 67 67
70 69 67 66 65 66 66 66 66 66 65 67 69 70 71 71 71 70 70 70 70 70 69 69 69 69 69 69 69 68 67 64
68 68 65 64 64 65 67 68 67 66 66 64 67 70 69 69 69 69 69 69 69 69 68 68 68 68 68 68 69 68 66 65
66 66 66 65 66 64 63 64 64 65 65 63 68 68 68 68 68 68 68 68 68 68 67 67 67 64 65 67 69 67 66 65
65 66 64 66 65 63 63 62 62 64 63 63 67 67 66 66 66 66 66 66 66 66 66 64 65 64 64 64 68 66 66 66
64 65 65 64 65 63 64 62 62 62 64 67 66 65 64 63 64 63 63 63 62 61 60 64 65 66 66 65 67 65 64 63
60 61 63 64 64 64 65 64 63 63 64 66 66 65 63 63 64 63 60 63 63 62 61 64 65 65 66 68 66 64 64 64
60 59 60 64 62 64 65 65 65 64 64 65 66 64 63 62 65 63 61 62 64 64 64 63 63 64 65 67 66 65 64 63
59 59 59 62 61 63 64 64 64 63 63 63 65 65 64 63 64 66 65 65 65 65 64 65 62 65 65 64 68 65 64 63
59 62 59 60 62 63 63 63 64 63 63 63 64 65 65 64 65 66 66 66 66 65 65 65 62 62 61 62 63 65 64 63
57 58 60 60 60 62 63 62 62 63 62 62 63 65 65 66 64 64 66 67 64 67 64 64 62 61 62 60 60 62 63 65
59 59 60 60 60 61 61 60 61 61 61 62 63 65 65 66 64 64 64 64 61 67 65 62 64 64 69 63 60 60 61 62
60 59 59 60 59 59 59 58 59 60 61 62 63 64 65 65 65 62 62 62 62 64 62 62 60 62 59 57 59 60 60 60
60 59 60 60 61 61 61 59 59 61 62 62 64 64 65 65 65 63 62 61 61 60 62 59 60 61 59 57 55 57 57 58
60 60 60 61 62 62 61 61 59 58 60 61 63 65 65 66 66 64 63 63 62 61 61 61 59 60 64 57 52 51 53 57
61 61 61 62 62 61 59 58 56 59 60 62 63 64 64 65 64 62 63 64 63 60 61 61 59 57 58 61 59 57 52 51
59 61 61 62 62 62 60 58 60 61 61 61 61 62 64 65 64 62 60 60 60 60 60 60 59 57 58 57 57 57 56 54
61 60 61 62 62 61 60 60 59 59 60 60 60 61 61 64 62 61 60 59 60 61 60 60 59 59 59 58 57 56 55 53
61 61 59 62 61 61 61 61 59 60 60 60 59 59 58 59 59 60 60 61 60 61 61 60 59 58 58 59 60 59 59 58
62 61 61 62 62 62 63 63 61 60 60 60 61 61 61 62 62 62 61 60 63 60 59 60 60 58 58 59 60 59 59 60

GFSFLT2_sfc_temp_078.txt.gz
Temp
68 69 71 71 71 70 67 67 66 66 65 67 66 69 72 73 73 72 72 72 71 71 70 70 70 70 69 68 67 67 65 65
67 69 67 66 66 68 67 67 68 67 67 65 67 68 69 71 71 71 71 71 70 70 70 70 69 69 68 67 67 67 62 61
67 66 66 65 64 65 67 68 67 67 67 66 65 67 69 69 70 70 70 70 69 69 69 68 68 69 68 67 67 65 64 62
65 64 64 64 65 64 63 64 65 65 64 63 67 66 68 69 69 68 68 68 68 68 68 67 67 67 68 67 65 65 64 62
64 63 63 63 63 62 61 61 63 63 63 63 66 66 66 67 66 67 66 67 66 64 65 63 64 64 66 64 64 64 63 64
63 63 63 63 63 62 62 61 63 63 63 63 62 65 65 65 66 65 64 65 62 61 60 61 62 64 66 63 64 63 62 61
60 61 62 64 63 63 63 61 61 62 63 64 63 65 64 64 65 61 60 59 60 61 61 63 62 63 66 64 63 62 62 62
58 59 60 63 64 63 63 61 62 62 64 63 65 65 63 61 61 61 59 59 60 59 58 60 61 62 65 63 63 62 63 60
58 58 59 61 63 64 64 63 63 63 65 65 64 63 62 62 62 62 62 57 57 58 59 60 60 63 64 62 62 62 62 61
58 60 58 61 61 63 64 64 63 64 64 65 64 64 63 62 63 63 63 62 61 58 59 58 60 60 62 62 61 61 61 61
56 57 59 60 61 62 63 64 63 64 65 64 64 65 64 64 64 64 64 64 62 62 59 60 59 58 62 60 60 59 59 62
57 58 60 60 61 61 62 62 62 63 63 63 64 65 65 65 63 62 63 63 60 61 61 60 61 59 66 60 58 58 58 58
57 57 59 59 60 59 59 59 60 61 62 63 64 65 65 65 65 62 63 62 62 62 61 61 56 58 56 55 56 57 58 59
58 58 59 60 60 60 60 60 60 61 61 62 64 64 65 65 65 63 63 61 59 58 60 57 57 60 58 54 52 55 57 58
59 59 59 59 60 61 60 59 58 58 59 60 61 63 65 65 64 64 63 63 60 57 58 62 57 57 61 55 51 51 53 54
59 60 60 60 60 60 59 58 56 58 60 61 61 62 63 63 63 63 62 63 60 60 60 58 57 58 56 59 58 56 51 50
60 60 60 61 61 59 60 58 60 59 60 59 60 61 61 63 62 62 62 62 60 60 60 58 58 56 59 56 56 56 55 52
60 60 60 61 61 60 59 59 59 58 58 58 59 61 61 61 61 62 62 62 61 61 61 60 58 58 57 57 57 55 53 52
60 60 59 61 60 60 60 58 59 59 59 59 59 60 59 61 61 60 61 61 62 62 61 58 57 56 58 57 58 58 57 56
58 59 59 60 60 60 61 61 60 59 60 59 60 61 61 62 62 61 61 60 60 60 59 58 58 58 56 57 58 58 58 59

GFSFLT2_sfc_temp_084.txt.gz
Temp
70 71 71 71 70 70 69 70 70 70 70 70 71 72 72 72 73 73 73 73 72 71 70 70 70 69 68 67 67 66 64 67
68 70 71 70 70 68 68 68 68 68 68 68 68 68 69 69 71 72 72 71 71 70 70 70 69 68 67 66 66 66 64 65
66 69 70 70 68 68 68 68 68 67 67 67 65 65 66 67 68 69 71 70 70 70 69 68 68 67 67 66 65 62 63 62
64 66 68 68 67 67 66 66 66 66 65 65 64 65 65 67 67 67 69 68 69 68 68 67 66 64 65 65 63 61 63 61
63 64 65 65 66 66 66 66 65 65 64 64 64 64 65 66 66 66 66 67 66 66 66 65 63 63 60 62 62 62 61 61
63 65 63 64 65 65 65 65 64 64 63 63 63 63 64 64 64 65 66 65 63 63 64 62 61 61 61 61 62 61 61 61
62 64 64 63 63 63 64 64 64 63 62 64 64 63 64 63 65 64 64 62 61 62 62 63 60 59 60 62 60 59 60 61
61 62 64 64 63 63 62 63 63 63 61 62 65 64 64 64 64 63 62 63 61 60 62 63 61 61 59 60 60 61 60 60
59 60 62 63 63 62 62 62 62 62 62 61 65 64 64 64 63 61 61 62 61 59 59 59 60 60 59 59 60 61 60 59
58 59 61 63 63 62 62 61 61 62 62 61 63 65 65 63 63 61 62 61 61 61 61 59 58 58 56 57 58 59 59 59
56 56 60 62 63 63 62 61 61 62 62 62 62 64 65 64 63 61 59 60 61 59 57 60 59 58 57 56 56 56 57 60
58 55 57 61 62 63 63 61 61 62 62 63 63 63 64 64 62 60 61 60 60 60 59 58 59 58 61 56 54 55 56 56
58 56 56 59 59 60 61 60 61 61 63 63 63 63 63 62 61 58 61 61 60 60 60 57 55 56 55 52 53 54 55 55
58 59 58 60 58 61 61 60 61 62 63 62 61 60 61 62 60 60 60 59 59 60 60 54 54 58 53 52 49 52 55 56
57 58 60 60 60 60 59 60 59 60 61 60 60 59 60 62 60 61 60 61 59 61 59 58 57 55 60 54 49 49 52 54
58 58 60 59 59 59 59 58 57 58 60 61 59 59 60 61 62 61 61 61 61 60 62 60 57 55 54 56 56 54 51 49
59 57 58 60 59 60 59 58 58 59 59 59 59 59 60 61 61 61 61 61 60 59 57 57 57 56 56 54 55 55 54 52
58 57 59 60 59 59 59 57 57 58 57 57 58 59 59 59 60 61 60 59 59 59 58 58 56 57 58 56 55 54 54 53
57 57 58 59 57 59 59 58 57 58 58 57 58 58 58 59 60 59 59 59 59 60 59 58 57 56 56 57 57 57 57 55
57 57 58 59 58 58 59 60 59 59 59 59 58 59 59 59 59 60 60 59 59 60 60 59 57 57 56 56 56 57 57 57

GFSFLT2_sfc_temp_087.txt.gz
Temp
72 73 74 71 70 70 70 71 72 71 71 72 73 73 72 73 73 73 73 73 72 71 71 70 70 69 69 68 67 69 78 79
71 72 73 73 72 69 69 69 69 70 69 69 69 70 71 71 72 73 73 72 71 71 70 70 69 68 68 67 66 68 78 79
71 71 73 74 72 70 69 69 69 69 69 68 68 73 73 71 70 70 70 70 70 70 69 68 68 67 67 66 68 77 77 79
69 70 71 72 70 69 70 71 73 71 71 71 71 71 71 69 69 67 67 68 68 69 68 67 69 75 72 68 76 75 77 77
68 69 70 70 68 68 67 67 68 69 67 67 69 68 67 67 67 67 67 66 66 69 69 74 73 75 74 74 74 74 75 76
68 68 68 68 68 68 66 65 66 66 68 65 65 65 64 65 69 69 66 65 66 69 73 72 72 72 72 71 72 74 74 74
68 68 67 67 66 67 66 66 65 66 66 65 65 66 64 66 69 67 64 63 64 69 71 71 71 71 72 71 71 71 71 74
71 67 66 67 66 66 66 66 66 65 65 65 65 66 65 66 69 66 66 63 65 69 71 71 71 71 70 71 71 71 71 72
69 66 66 66 66 65 65 64 65 63 63 65 65 66 66 67 65 66 64 63 67 70 71 71 69 69 70 70 71 71 70 71
69 66 65 66 66 65 64 63 63 64 63 64 65 66 67 66 64 64 63 62 69 68 69 68 69 69 66 69 68 70 71 70
67 66 64 64 67 66 64 63 62 63 63 62 65 65 66 65 64 63 62 61 68 69 68 69 68 68 69 69 69 68 69 71
68 66 64 67 66 65 64 62 62 62 63 64 65 65 66 64 64 60 62 63 66 68 66 68 68 68 68 67 68 69 70 70
66 64 63 64 63 62 61 60 61 61 63 64 64 64 64 64 62 61 62 64 66 66 66 65 66 68 65 64 64 66 66 68
64 66 64 64 66 65 64 62 62 63 63 65 64 63 63 62 60 61 62 65 65 64 65 65 66 66 65 64 57 61 65 65
62 66 65 64 65 64 63 63 62 62 61 62 63 63 63 61 61 62 65 64 64 65 66 66 61 64 66 67 58 60 62 66
64 65 66 66 66 65 63 62 60 59 62 60 60 61 61 60 62 63 63 63 64 65 66 65 64 62 64 66 68 66 63 58
61 64 64 64 62 63 62 61 61 62 60 59 58 58 59 60 62 62 62 63 63 63 61 63 66 65 65 63 64 65 64 62
60 59 63 62 61 62 63 62 61 59 59 58 57 57 58 60 60 60 62 63 62 63 63 62 62 64 66 66 65 64 62 62
59 59 62 62 61 62 62 62 63 61 58 58 57 56 57 59 60 60 60 62 60 61 63 62 60 61 62 64 66 67 67 66
59 59 62 60 61 61 62 62 61 61 60 59 59 58 58 59 59 59 59 60 59 59 61 62 61 62 62 64 65 66 66 67

GFSFLT2_sfc_temp_090.txt.gz
Temp
78 77 77 70 70 71 70 72 72 72 73 73 74 73 73 73 74 74 74 74 73 72 71 70 70 70 69 68 69 71 84 79
78 76 78 79 79 69 70 70 71 71 70 71 71 71 72 72 72 73 73 72 71 71 70 70 69 69 68 68 68 70 81 79
78 76 78 78 80 78 71 70 70 69 70 69 70 79 78 77 71 69 70 70 70 70 69 69 68 68 68 67 68 81 81 79
74 78 78 76 80 79 78 79 80 79 79 78 79 79 78 76 71 68 68 67 68 68 67 67 70 77 75 69 80 82 81 79
72 76 76 76 75 75 78 79 80 79 78 79 77 76 75 76 73 70 69 67 68 67 66 72 76 78 78 78 79 81 79 82
73 73 74 73 75 72 74 72 76 73 77 74 71 71 71 73 69 68 68 68 66 66 67 73 76 77 77 77 79 82 84 84
77 72 73 73 72 70 69 71 70 73 73 75 73 69 71 70 67 67 71 66 65 65 68 72 75 76 79 79 79 80 80 83
81 72 72 71 71 71 69 70 70 70 71 70 73 68 69 73 67 68 69 68 66 66 66 71 74 78 78 78 78 79 79 79
81 74 70 69 70 71 70 71 70 68 69 67 69 67 67 68 67 66 68 69 64 65 69 73 75 79 77 78 78 78 78 78
83 76 71 70 68 68 70 70 69 67 67 66 65 66 67 71 66 65 67 66 64 64 68 71 73 77 77 77 78 77 76 77
81 78 71 69 69 67 69 71 69 66 65 65 65 65 66 67 67 65 65 64 62 64 66 72 73 75 76 76 77 77 76 78
81 79 72 70 69 70 72 69 68 66 64 64 65 65 66 66 65 63 63 62 62 64 68 72 75 75 76 75 75 76 76 75
80 77 69 69 69 68 69 66 66 64 64 64 65 65 65 65 64 62 62 61 62 66 69 71 73 74 70 68 68 70 71 76
79 78 69 71 76 77 74 67 67 66 64 64 65 65 66 64 63 62 62 61 61 68 69 70 71 71 67 68 58 62 66 71
78 78 72 75 77 77 72 67 65 64 62 62 63 65 65 63 62 62 62 62 61 67 70 71 68 70 72 70 62 63 66 69
77 77 76 75 75 75 71 71 64 64 62 63 63 63 63 62 62 62 62 63 64 68 72 71 70 67 71 76 75 76 67 62
74 76 76 75 74 75 71 69 70 72 68 62 62 62 62 61 61 62 61 63 66 70 70 70 71 71 70 70 71 73 73 72
70 74 75 75 74 73 72 70 68 68 62 60 59 58 60 61 61 61 62 63 66 68 68 70 71 71 72 71 70 68 69 71
66 72 73 72 71 71 69 69 70 68 61 58 57 57 56 57 59 59 59 63 66 66 68 69 69 70 70 71 72 72 75 74
62 67 71 70 69 68 68 71 69 68 61 59 57 58 57 58 58 59 60 62 65 66 67 67 67 67 68 69 70 71 74 73

GFSFLT2_sfc_temp_093.txt.gz
Temp
84 81 78 71 71 71 72 72 72 72 72 73 73 73 73 74 74 75 75 74 73 72 71 70 70 69 70 70 70 70 83 77
84 83 81 81 79 70 70 71 71 71 71 70 72 72 72 72 72 73 74 73 72 71 70 70 69 68 69 69 69 72 75 79
83 82 83 84 84 78 71 71 71 70 71 70 70 81 79 77 74 70 71 71 72 70 68 68 68 68 67 68 68 80 79 77
83 81 81 83 86 82 81 81 81 80 81 81 80 81 80 81 74 68 68 68 68 68 67 67 70 75 73 70 81 77 76 73
81 81 82 82 84 84 84 82 82 82 81 82 82 82 78 77 74 72 69 69 69 68 66 69 75 75 76 78 78 73 76 73
81 78 82 79 84 82 85 85 81 80 80 80 80 79 75 75 75 74 72 67 68 67 66 68 71 75 75 78 76 74 82 75
85 77 81 80 79 79 79 80 84 82 79 78 78 77 74 77 71 76 71 68 66 65 65 66 66 73 73 76 74 78 77 78
87 81 79 82 79 76 77 76 75 79 80 77 77 76 75 73 74 72 70 68 66 66 65 65 65 69 74 74 76 79 82 82
88 83 76 78 77 74 75 78 76 75 77 78 76 76 74 74 69 69 71 67 68 65 65 65 65 69 74 76 80 80 80 80
90 87 75 74 75 76 74 77 76 74 72 74 73 73 72 72 65 68 67 66 66 64 64 63 64 68 74 75 79 79 78 78
88 86 76 72 74 75 72 73 73 73 75 73 71 70 72 68 70 66 66 64 64 66 63 64 64 70 72 77 78 78 77 80
89 87 78 72 72 72 71 72 72 69 68 70 69 69 69 70 67 65 67 63 63 64 62 63 66 71 76 74 75 78 77 77
88 85 79 72 69 67 68 67 67 68 67 68 68 68 67 67 66 65 65 62 63 64 63 62 63 76 70 67 67 70 75 77
85 85 83 73 70 73 77 73 73 71 69 67 67 66 66 65 66 64 63 62 62 62 62 61 62 70 69 68 61 61 68 75
85 85 84 74 75 78 77 73 69 66 67 67 67 67 66 65 65 63 62 62 62 62 63 62 63 67 70 69 62 59 63 70
85 85 83 73 78 80 75 68 65 68 68 68 64 65 65 65 63 63 62 62 61 62 64 63 67 66 69 75 74 74 64 59
83 84 83 77 79 81 76 74 76 74 70 68 66 63 64 63 63 62 61 61 62 62 63 66 68 68 70 70 72 74 72 68
81 81 81 79 79 79 77 75 76 74 70 67 64 62 62 61 62 62 62 62 62 62 64 66 68 70 73 72 71 68 71 71
78 78 79 79 77 77 77 75 75 72 71 67 62 60 60 61 61 61 61 62 62 63 63 67 69 70 71 69 73 73 75 75
72 78 79 78 76 76 76 76 72 74 69 65 62 58 59 61 61 61 61 62 62 63 65 68 68 68 67 68 68 72 72 74

GFSFLT2_sfc_temp_096.txt.gz
Temp
76 75 74 71 71 71 72 72 73 72 73 73 73 72 72 73 73 74 75 73 73 72 71 71 71 71 71 70 68 71 71 71
77 76 75 74 73 70 71 71 72 72 72 72 71 71 71 71 72 73 74 73 72 71 70 69 69 70 69 67 69 71 71 73
78 77 77 76 76 73 70 71 71 71 72 71 68 73 73 73 72 71 71 71 71 71 68 68 67 67 68 69 69 71 70 70
77 77 77 77 81 74 74 75 74 73 74 73 72 74 74 76 72 68 70 69 69 68 67 67 67 66 65 66 67 70 72 69
78 76 76 77 78 75 76 76 75 75 75 75 75 75 73 71 68 69 68 69 67 67 66 67 68 67 66 69 69 70 70 71
78 77 77 76 77 78 77 77 76 75 75 75 74 73 71 71 71 68 67 66 66 66 65 65 67 69 70 70 70 71 69 70
78 77 77 77 76 76 76 76 76 76 75 75 74 73 71 70 71 71 68 66 66 65 65 65 65 66 68 70 69 69 70 71
75 75 77 77 76 75 74 75 76 76 75 74 74 72 71 70 69 70 69 67 66 66 65 64 64 65 66 69 70 69 70 71
76 74 76 76 76 75 75 74 73 73 74 73 73 72 70 70 69 68 67 67 65 64 64 64 64 64 64 68 70 69 72 71
80 79 75 76 76 75 74 75 73 73 72 73 73 72 71 69 68 67 67 65 65 64 64 63 63 63 62 65 66 72 72 70
80 78 75 74 74 72 71 73 73 73 72 71 72 71 71 69 67 66 66 65 64 64 63 63 62 62 63 64 68 69 68 73
81 78 74 73 74 71 71 71 72 73 71 70 71 69 69 68 67 66 66 64 64 63 62 62 62 62 65 65 69 66 67 67
80 77 73 72 71 68 67 67 68 68 69 70 70 68 68 68 66 65 65 64 63 63 62 61 60 62 60 62 62 64 65 65
78 79 73 72 72 71 70 68 67 67 66 67 67 67 67 67 66 65 63 63 62 62 62 60 61 62 59 62 56 59 63 69
78 80 75 74 72 71 71 70 69 66 65 64 65 66 66 66 66 65 64 64 62 62 62 61 59 60 60 64 55 53 57 61
78 79 80 74 72 70 69 69 65 66 65 66 65 66 66 65 65 64 63 63 62 62 62 62 61 59 60 68 64 63 57 52
76 78 80 73 72 72 71 69 68 67 66 65 65 65 65 64 64 64 62 62 62 62 61 61 61 60 61 63 62 63 63 58
75 77 78 73 72 72 73 68 69 68 66 64 63 63 63 63 63 63 62 62 62 62 62 62 61 61 64 65 65 61 60 61
75 76 77 73 71 73 73 71 70 70 66 64 63 61 61 62 62 61 61 62 62 62 62 62 62 61 63 65 67 64 65 66
74 75 76 75 73 73 72 69 70 69 66 65 62 61 61 62 61 62 62 61 62 62 61 61 62 61 63 64 63 64 65 66

GFSFLT2_sfc_temp_102.txt.gz
Temp
69 70 71 71 70 70 70 71 71 72 72 72 72 72 72 73 73 73 73 73 73 72 71 71 71 71 70 68 68 68 66 67
68 69 69 71 69 69 69 70 71 71 71 71 70 71 71 72 72 72 72 71 72 70 70 71 71 69 68 67 67 68 67 67
68 68 68 68 70 70 70 70 71 71 72 71 69 70 70 71 70 70 70 70 69 70 70 69 68 67 67 66 66 66 65 65
68 68 68 68 71 68 67 70 70 73 75 74 70 69 68 71 69 69 69 68 69 69 69 68 68 67 66 66 65 64 64 64
68 68 68 68 69 70 68 68 72 74 74 72 68 69 68 67 66 66 66 67 66 66 65 64 66 66 65 65 65 64 63 65
69 69 69 68 68 69 70 70 69 71 73 71 69 68 65 65 65 65 65 65 64 63 62 63 65 67 67 66 65 64 63 66
70 70 70 70 68 67 67 68 69 69 68 69 69 67 66 65 64 65 65 64 63 63 63 62 63 65 65 65 65 65 64 65
71 70 71 71 69 68 68 68 68 68 68 68 69 68 66 65 64 64 65 64 63 63 63 62 61 63 64 65 65 65 64 65
72 71 71 71 71 69 69 69 68 68 68 68 68 68 66 65 64 64 65 64 63 62 62 63 63 63 64 64 65 64 64 65
73 74 71 70 72 70 70 69 69 69 68 68 67 68 67 65 64 63 64 64 64 64 63 62 62 63 62 62 63 64 64 65
72 72 69 70 71 70 70 68 68 67 67 68 67 67 67 66 65 64 65 64 64 63 63 62 61 61 62 62 63 62 63 64
72 71 70 71 70 70 67 66 66 67 67 67 66 67 66 65 64 64 64 64 63 63 63 63 61 61 63 62 62 61 62 62
71 69 70 70 68 67 66 66 66 65 66 67 67 65 65 65 64 64 65 64 63 63 63 61 61 62 61 59 60 59 61 61
68 70 69 70 69 69 69 69 66 66 66 67 68 67 67 66 65 64 64 63 63 62 62 61 61 62 59 58 55 56 57 60
67 72 70 70 71 69 64 65 63 62 65 66 67 67 66 66 65 65 64 64 62 62 62 61 59 61 60 58 53 52 55 58
68 73 70 71 70 68 66 66 64 66 66 66 66 66 66 65 65 64 64 64 63 62 63 62 61 59 59 60 59 60 55 52
64 71 70 71 68 68 66 65 66 63 63 64 64 64 65 64 65 64 64 64 63 63 62 61 62 61 60 59 58 59 63 58
61 67 68 68 68 68 66 64 63 62 63 63 63 63 63 64 64 64 64 64 63 63 63 62 61 61 61 61 59 59 59 59
60 66 67 67 67 66 65 64 63 63 62 62 62 62 62 62 63 62 63 63 63 63 62 62 61 61 61 61 62 62 65 63
57 62 66 65 64 64 64 64 63 63 62 61 61 62 61 63 63 63 63 63 63 63 62 62 62 61 61 61 61 61 65 65

GFSFLT2_sfc_temp_105.txt.gz
Temp
70 71 71 70 70 70 70 71 71 71 72 72 72 72 72 72 73 73 73 73 72 72 71 71 71 71 70 68 68 68 65 65
69 71 71 70 70 69 69 70 70 70 71 71 70 71 71 72 71 72 72 71 71 71 71 71 70 70 69 68 67 67 65 65
68 69 71 71 70 70 70 70 70 70 70 70 68 70 70 71 70 70 70 70 70 70 70 69 69 68 68 67 67 65 65 64
67 68 69 69 71 70 71 72 70 69 70 70 70 69 69 70 69 69 69 69 69 69 69 67 67 66 65 67 66 65 64 64
67 67 68 68 68 69 69 69 67 67 69 69 70 68 68 68 67 67 67 68 66 67 66 65 64 65 65 65 65 65 65 64
67 67 67 67 68 69 70 69 67 69 70 71 69 68 68 67 66 65 65 65 64 63 63 63 64 64 65 65 64 64 63 64
67 67 67 67 67 69 69 70 70 72 72 71 69 69 68 66 65 65 65 63 63 62 63 62 62 63 64 65 64 63 64 64
68 67 68 67 67 67 68 70 71 70 71 71 70 69 68 66 65 65 65 64 63 63 62 62 62 62 62 64 64 64 65 65
68 68 69 68 68 67 67 68 70 69 70 70 70 69 66 65 65 66 67 64 62 62 61 61 62 62 62 63 63 64 64 65
72 71 69 68 68 67 67 67 67 68 68 69 69 68 66 64 64 65 65 64 62 61 61 61 63 63 61 62 63 63 64 64
71 71 69 69 69 68 68 67 67 67 67 67 68 67 66 65 64 65 65 64 63 62 62 63 62 61 62 62 62 62 63 64
71 72 70 70 69 67 67 66 67 67 67 67 67 67 66 65 63 64 64 64 63 63 62 62 62 62 62 62 62 62 63 63
68 70 70 69 68 67 66 66 66 66 67 67 66 67 66 65 65 64 64 63 63 63 62 61 60 61 60 60 61 62 62 62
64 69 69 68 70 70 69 67 66 67 67 66 67 66 65 66 65 64 64 63 63 63 62 61 61 61 59 58 55 56 59 61
61 67 70 69 71 70 64 63 63 64 64 65 66 66 66 65 65 65 64 64 63 63 63 62 60 61 62 58 54 52 55 58
57 65 68 69 70 68 66 66 65 67 66 66 67 67 66 66 65 65 64 64 63 63 63 62 61 59 60 61 58 57 54 52
55 59 68 70 69 69 67 66 67 64 65 65 65 65 65 66 65 64 64 64 63 63 62 62 62 61 60 59 59 57 57 55
56 60 67 69 68 68 66 66 64 63 64 64 64 64 64 65 65 65 64 64 63 63 63 62 62 61 61 61 60 57 56 56
54 61 64 67 67 68 67 66 64 63 64 65 63 63 63 63 64 63 63 64 63 63 63 62 62 61 61 61 62 61 63 62
49 52 55 67 67 67 67 64 63 63 63 64 63 63 64 64 63 63 64 63 63 63 63 62 62 61 61 61 61 61 61 62

GFSFLT2_sfc_temp_108.txt.gz
Temp
70 70 71 71 70 70 70 71 71 72 72 72 73 72 72 73 73 73 73 72 72 72 71 71 71 70 69 68 68 68 67 66
71 72 69 69 70 69 69 70 70 70 71 71 70 70 71 72 71 72 72 72 72 71 71 71 70 69 68 67 67 68 66 66
70 71 70 68 70 70 70 70 70 70 70 70 68 70 70 71 70 70 71 70 70 71 70 70 69 69 68 67 67 66 65 65
69 70 71 72 72 71 70 71 71 71 71 70 70 68 68 70 70 69 69 69 69 70 69 68 68 65 66 67 65 65 65 65
66 69 70 70 70 70 71 71 70 68 70 70 71 69 67 68 68 68 67 68 67 68 67 67 65 64 64 64 64 64 64 66
65 65 68 69 69 70 70 70 70 67 68 68 69 69 68 67 67 66 66 66 64 65 65 64 64 64 64 64 64 64 64 64
66 65 67 68 67 69 70 70 70 68 67 68 69 69 68 68 67 66 65 64 64 63 63 63 62 63 64 64 63 63 64 64
68 66 66 66 68 66 68 70 70 68 68 68 70 70 69 68 66 66 64 64 63 63 63 63 62 62 62 63 63 64 65 64
66 67 67 66 67 65 66 67 69 70 71 68 70 71 69 68 67 66 66 63 62 61 60 60 60 61 62 62 63 64 64 64
67 69 67 67 66 66 65 65 66 68 70 70 70 71 68 67 66 66 66 64 62 61 61 60 61 61 62 61 61 63 63 63
66 66 67 67 67 67 66 66 67 68 70 70 69 69 68 66 66 66 65 64 63 62 60 61 61 61 62 62 63 63 63 64
63 66 68 67 68 67 66 66 66 68 68 69 68 68 67 67 65 65 65 63 63 62 61 62 62 62 62 61 62 62 63 63
62 63 68 67 67 66 66 66 66 66 67 67 68 68 67 67 65 64 64 63 63 63 63 61 60 61 60 59 60 61 62 62
59 61 65 68 70 70 69 68 67 68 67 67 67 68 67 67 65 64 64 63 63 63 63 61 61 61 58 58 55 57 60 62
55 58 64 68 70 70 67 66 65 64 65 66 66 67 67 67 66 65 64 64 63 63 63 62 60 60 62 58 54 53 55 58
52 55 59 67 68 68 68 66 65 67 67 67 67 66 66 67 66 65 64 64 63 63 63 63 62 59 60 61 59 58 54 52
50 52 55 65 67 69 67 66 68 67 66 66 66 66 66 66 66 65 64 64 64 63 63 63 62 62 61 59 60 57 57 54
49 54 57 62 66 68 66 66 65 63 65 64 65 65 65 65 65 65 65 64 64 63 63 63 62 62 62 61 60 58 56 56
48 51 54 61 64 66 66 66 65 64 65 65 64 64 64 64 64 64 64 64 64 64 63 63 62 61 61 61 62 61 62 60
45 48 50 53 63 67 66 64 63 63 64 65 65 64 64 64 64 65 65 64 64 63 63 63 63 62 62 61 61 62 63 62

GFSFLT2_sfc_temp_111.txt.gz
Temp
75 75 74 70 70 70 70 71 72 72 72 72 73 72 72 73 73 73 74 73 73 72 71 71 71 70 69 68 68 69 80 80
76 74 74 75 76 69 70 70 70 71 71 71 70 71 71 72 72 73 73 72 72 71 71 71 70 69 69 68 67 68 79 79
74 74 73 75 76 75 71 70 70 70 72 70 70 78 78 76 74 71 71 71 71 71 70 70 69 69 68 67 67 80 78 79
71 72 72 74 76 75 76 76 77 78 78 78 77 77 77 78 74 69 69 69 69 70 69 69 70 78 76 69 78 77 77 77
70 70 71 72 74 73 75 75 74 74 74 75 76 75 76 75 77 77 78 71 76 73 73 75 77 77 76 75 76 76 77 78
74 72 70 70 72 73 74 75 74 71 72 72 73 72 72 74 77 76 76 76 76 74 74 74 75 76 76 75 75 76 76 74
74 73 72 71 69 71 73 73 73 71 72 72 72 72 72 73 74 76 77 76 75 73 73 74 74 74 75 74 75 75 74 75
76 74 74 73 70 69 71 71 72 71 73 74 72 73 72 72 72 74 75 75 74 74 73 73 74 74 73 74 75 75 75 74
76 74 74 72 72 71 71 72 72 70 74 75 74 75 74 72 71 71 73 72 72 72 72 73 73 72 73 73 74 74 75 74
76 76 74 72 72 72 72 71 73 73 75 76 75 75 76 72 69 69 70 69 70 71 71 71 71 71 71 71 72 73 74 72
73 74 74 73 73 73 72 72 72 74 75 75 75 75 72 71 70 68 68 68 67 69 70 71 70 69 70 71 71 69 68 71
71 72 73 74 74 72 71 70 72 74 74 74 73 72 71 71 69 67 67 66 65 65 66 68 70 70 68 69 69 66 71 67
68 69 69 73 73 69 68 66 69 71 72 72 72 71 70 69 70 67 67 66 65 64 65 64 64 65 64 63 64 66 66 65
61 63 66 70 76 75 74 72 70 71 69 69 70 70 70 68 69 67 66 66 65 64 64 62 63 64 62 62 59 63 65 67
58 60 62 64 71 76 75 73 71 66 66 67 68 69 70 68 68 67 66 66 65 65 64 64 61 62 65 64 58 57 60 64
56 57 59 62 65 73 72 72 69 70 70 70 68 68 69 69 68 67 66 66 66 65 65 65 65 61 62 63 69 68 61 57
51 54 57 61 64 69 73 72 74 75 72 70 68 67 68 69 68 67 66 66 66 65 64 65 65 64 63 62 64 63 63 60
47 49 53 59 63 66 71 72 72 73 71 68 67 67 66 66 67 66 66 66 66 65 65 65 64 64 64 65 63 61 58 59
44 47 48 53 57 65 71 72 72 72 71 71 68 66 65 65 66 65 66 66 66 66 65 64 64 63 64 64 65 65 64 63
41 45 45 49 52 58 70 69 69 71 72 72 70 69 67 67 66 66 66 65 66 66 66 64 64 63 64 64 64 64 64 63

GFSFLT2_sfc_temp_117.txt.gz
Temp
84 82 78 71 71 71 71 72 72 73 73 73 74 73 73 74 74 74 74 74 74 73 72 72 72 71 71 70 69 71 81 88
86 82 83 82 82 71 71 71 71 72 72 72 72 72 72 73 73 73 74 73 73 72 72 71 71 70 69 69 69 70 82 84
82 81 82 85 86 80 72 71 71 71 73 71 72 83 81 79 77 72 72 72 72 71 71 70 70 69 69 69 69 84 85 86
77 77 78 85 89 84 83 83 83 82 83 81 83 84 84 85 79 71 71 70 70 70 70 69 70 80 77 70 80 83 82 83
80 76 76 78 85 88 86 87 85 84 84 84 83 86 86 85 85 82 80 72 78 75 74 78 80 83 84 81 82 82 80 81
85 81 78 78 83 87 87 89 87 86 85 84 85 85 84 85 85 83 81 83 81 80 80 80 82 83 79 80 82 79 80 80
85 84 81 79 78 82 81 83 86 87 87 86 86 86 84 85 86 86 83 85 82 81 79 80 80 82 82 80 80 81 79 83
86 85 84 81 80 81 80 82 87 84 85 84 85 86 83 85 86 87 87 88 82 83 81 76 78 79 79 81 80 82 78 79
86 85 85 83 80 82 80 83 84 87 85 82 77 83 84 82 81 86 87 89 81 82 81 78 75 77 78 80 80 81 78 78
86 86 84 83 84 84 83 83 83 86 86 83 80 76 83 82 77 81 87 87 84 78 78 78 73 73 75 78 77 79 78 79
80 80 80 81 81 84 83 83 83 85 86 84 82 80 80 83 81 77 82 85 83 79 75 76 76 77 75 74 76 78 78 79
76 77 77 78 79 80 84 84 84 82 84 85 82 83 80 80 82 79 77 80 79 80 76 75 75 76 76 76 75 75 78 78
71 71 73 74 77 78 81 81 83 83 82 84 83 84 83 80 82 81 77 74 74 75 77 75 73 75 72 74 72 74 74 77
67 67 69 71 74 76 79 82 85 85 85 83 84 84 83 82 81 83 78 75 70 71 72 72 75 76 71 68 63 67 74 77
63 64 65 67 68 71 74 77 78 82 81 81 83 83 83 81 81 82 81 76 73 70 69 69 67 71 75 71 66 67 74 75
62 61 61 63 65 65 67 70 74 82 82 81 81 81 82 82 81 81 80 76 73 71 71 69 68 65 68 74 76 79 73 69
58 57 58 60 61 61 62 65 71 76 78 80 79 80 80 81 80 79 77 75 74 72 69 68 69 68 66 70 73 76 75 72
53 53 55 57 57 57 56 58 63 69 73 77 76 77 78 78 78 76 74 73 73 73 70 69 68 68 68 71 71 70 72 69
48 48 49 51 52 53 53 54 58 63 67 72 76 75 75 75 74 71 73 73 72 72 68 68 68 67 67 67 75 75 76 74
42 42 44 47 47 48 49 51 54 61 67 72 71 79 78 76 74 71 70 73 71 70 69 68 67 67 67 68 73 75 75 75